GFSSGP_850_temp_000.txt.gz
Temp
23 23 21 23 32 33 30 29 30 29 29 27 27 28 26 25 26 24 20 19 18 18 18 18 19 19 19 19 19 19 19 19 19 19 19 19 19 19 19 19 19 19 19 19 19 19 19 19 19
20 21 23 30 33 31 30 31 30 30 27 26 26 26 26 24 21 20 20 19 18 18 18 17 18 19 19 19 19 19 19 19 19 19 19 19 19 19 19 19 19 19 19 19 19 19 19 19 19
23 21 29 34 33 31 30 30 30 28 28 28 26 25 25 21 21 21 20 19 18 18 18 18 19 19 19 19 19 19 19 19 19 19 19 19 19 19 19 19 19 19 19 19 19 19 19 19 19
22 25 29 33 31 31 30 30 29 29 28 27 26 25 22 21 21 20 19 19 18 18 18 19 19 19 19 19 19 19 19 19 19 19 19 19 19 19 19 19 20 19 19 19 19 19 19 18 19
24 29 34 32 31 31 31 30 30 30 28 27 27 25 22 20 20 20 20 19 19 19 18 19 19 19 19 19 19 19 18 18 19 19 19 19 19 19 19 19 19 19 19 19 19 19 19 18 18
32 32 33 32 31 31 31 30 30 29 27 26 25 24 20 20 20 20 20 21 21 19 18 18 19 19 19 19 19 19 19 19 19 19 19 19 19 19 19 19 19 19 19 19 19 18 18 18 18
32 35 33 33 31 31 31 30 31 29 28 27 25 25 18 20 20 20 20 21 20 19 19 18 17 18 19 19 19 19 19 19 19 19 19 19 19 19 19 19 19 19 19 19 19 18 18 18 18
32 35 34 34 33 31 31 30 30 30 27 25 26 25 20 20 20 20 20 20 19 18 17 18 18 17 17 19 19 19 19 19 19 19 19 19 19 19 19 19 19 19 19 19 19 18 18 18 18
30 35 34 33 33 32 31 31 28 28 26 24 25 25 22 20 20 20 20 20 19 19 19 18 18 18 18 17 18 19 19 19 19 19 19 19 18 18 18 18 18 19 19 19 19 19 18 18 18
34 35 34 34 34 33 31 31 29 29 27 24 23 22 20 20 20 20 20 20 19 19 19 19 19 18 18 18 17 17 17 17 17 17 17 17 18 18 18 18 18 18 18 19 18 18 18 18 18
34 34 33 32 32 32 31 30 30 30 30 26 23 21 20 20 20 20 20 20 19 19 19 19 19 18 18 18 18 18 18 18 18 17 17 17 18 18 18 18 18 18 18 18 18 18 18 17 17
33 32 32 31 31 32 32 30 28 28 26 24 22 22 21 21 21 21 21 20 19 19 19 19 18 17 18 18 18 18 19 18 18 18 17 17 17 18 17 18 18 17 17 17 17 18 17 17 17
33 32 31 31 31 31 31 29 27 25 24 23 22 22 22 22 21 21 21 20 19 19 19 18 18 17 17 17 18 18 18 18 18 18 18 17 18 18 18 17 17 17 17 17 17 17 17 17 17
32 31 31 31 31 31 31 29 28 24 24 23 23 23 22 22 22 21 21 20 20 19 19 19 18 18 18 18 17 18 18 18 18 18 18 17 17 17 18 17 17 17 18 17 17 17 17 17 17
31 31 31 31 31 31 31 30 28 25 24 24 24 23 23 22 22 21 21 20 20 20 19 19 18 18 18 18 18 17 17 18 18 18 17 17 17 17 17 17 17 17 18 18 17 16 16 16 17
33 33 31 32 31 30 30 29 27 26 26 25 24 24 23 22 22 21 21 21 20 19 19 18 19 19 18 18 18 18 18 18 18 18 18 17 17 18 17 18 18 17 17 16 16 17 17 17 17
33 32 33 31 31 32 32 30 28 27 27 26 25 24 24 23 22 22 21 21 20 20 19 19 18 18 18 17 17 17 17 17 18 18 18 18 18 18 17 17 18 18 18 18 18 17 16 16 17
32 33 33 32 32 31 32 30 29 27 28 27 26 26 25 24 24 22 22 21 21 20 19 19 19 18 18 18 18 18 18 18 18 18 18 18 18 18 18 18 18 18 18 18 17 18 16 17 16
34 33 33 33 33 32 32 30 30 28 28 28 28 26 26 25 25 23 22 21 21 20 20 19 18 18 18 18 18 18 18 17 17 18 17 17 17 18 18 18 17 17 17 16 16 16 16 16 16
33 33 33 32 31 32 31 30 30 29 29 28 28 27 26 26 25 23 22 22 21 21 20 19 19 18 19 18 18 18 18 18 17 17 17 17 16 16 17 17 16 16 16 16 16 16 16 16 16
33 33 33 32 30 32 30 30 28 29 28 28 27 27 26 26 25 24 23 22 22 21 20 20 20 20 19 19 18 18 18 19 19 19 18 17 15 16 16 15 15 15 15 15 15 16 16 16 16
33 33 33 32 30 31 31 31 29 30 28 28 27 26 26 25 25 25 24 23 22 21 20 19 19 20 19 19 18 17 18 18 18 17 16 16 15 16 16 15 14 14 15 15 15 15 16 16 15
32 32 32 32 31 31 30 30 32 30 29 29 28 28 26 26 25 25 25 24 22 20 20 19 21 20 19 19 19 18 17 17 16 16 15 16 15 16 15 14 14 14 14 14 15 15 15 16 15
31 31 31 32 32 30 32 31 32 32 30 31 29 28 26 26 25 25 25 23 21 20 20 20 20 20 19 19 18 18 17 17 16 15 15 15 15 15 14 13 14 14 14 14 14 14 15 16 16
32 32 30 30 30 30 30 30 31 33 31 31 31 28 27 25 25 25 24 21 20 20 20 20 20 19 19 18 18 18 17 16 15 15 16 15 15 15 14 14 14 13 13 14 13 14 14 15 15
32 33 32 28 30 31 29 30 31 31 30 30 30 29 27 25 25 24 23 21 20 20 20 20 20 19 19 19 18 17 16 16 15 15 14 15 14 14 14 13 13 13 12 12 13 13 14 14 14
32 31 34 31 31 30 32 31 31 31 30 28 28 28 28 25 25 24 23 21 21 20 20 21 20 20 19 18 18 16 14 14 14 15 14 14 14 14 14 14 13 13 12 12 12 13 13 13 13
33 34 31 32 29 28 31 30 31 31 31 31 29 28 28 25 25 24 23 22 21 20 20 21 21 20 19 18 17 16 15 14 14 14 14 14 14 14 14 13 13 13 13 12 12 13 13 12 12
31 32 32 32 31 30 30 31 32 31 32 31 30 28 27 26 25 25 24 22 21 20 20 21 21 20 19 18 16 15 15 14 14 14 14 13 13 13 13 13 14 13 13 13 12 12 13 12 12
34 33 32 31 29 31 30 30 33 32 32 31 30 28 27 26 26 25 24 22 21 20 20 20 19 18 18 17 16 15 14 14 14 14 14 13 13 13 14 14 13 13 13 13 12 12 12 11 11

GFSSGP_850_temp_003.txt.gz
Temp
26 24 24 27 34 34 31 31 33 31 31 30 29 30 28 27 30 25 21 19 19 19 18 19 19 19 19 19 19 19 19 19 19 20 19 19 18 18 18 18 19 19 18 18 19 19 19 19 19
24 24 26 31 34 32 32 33 31 31 29 29 29 29 28 26 25 23 21 20 19 19 19 18 19 19 19 19 19 19 19 19 19 19 19 19 19 19 18 19 19 19 19 19 19 19 19 19 18
24 25 29 36 34 32 31 32 31 31 30 29 29 28 27 25 24 23 21 20 19 18 19 19 19 19 19 19 19 19 19 19 19 19 19 19 18 18 18 18 19 19 19 19 19 19 19 18 18
27 29 33 34 32 33 32 32 32 31 30 29 28 27 25 25 24 23 20 19 19 18 18 19 19 19 19 19 19 19 19 19 19 18 18 18 18 18 18 19 19 19 19 19 19 19 19 18 18
27 31 34 33 32 33 34 33 33 32 31 30 28 27 25 24 23 22 20 20 19 18 18 19 19 19 19 19 19 19 19 19 19 18 18 18 18 19 19 19 19 19 19 19 19 19 19 18 19
26 35 34 32 32 33 34 33 32 31 31 29 27 26 24 23 23 22 22 22 21 20 19 19 19 19 19 19 19 19 19 19 19 18 19 19 19 19 19 19 19 19 19 19 19 18 18 18 18
23 33 35 34 33 33 34 33 33 31 30 29 27 26 24 23 23 24 23 21 22 20 19 18 18 19 19 19 19 19 19 19 19 19 19 19 19 19 19 19 19 19 19 19 19 19 18 18 18
34 38 35 34 34 33 34 33 32 32 30 28 27 26 24 23 23 24 23 22 21 20 19 19 18 18 18 19 18 18 19 19 19 19 19 19 19 19 19 19 18 19 19 19 19 18 18 19 19
34 34 36 35 35 34 34 33 32 30 29 29 28 27 25 23 23 23 23 21 20 20 19 18 18 18 18 18 18 19 19 19 19 19 19 19 18 18 18 18 18 19 19 19 19 19 19 19 19
36 36 35 36 36 35 34 33 32 31 29 28 28 26 24 23 23 23 23 22 22 21 21 20 20 19 19 20 19 17 17 17 17 17 18 18 19 19 19 18 19 19 19 19 19 19 19 18 17
37 36 36 35 35 35 34 33 33 33 31 29 26 24 24 23 23 23 23 22 22 21 22 22 19 20 20 20 19 19 19 19 19 18 18 18 18 18 18 18 18 18 18 19 18 18 19 18 18
35 35 35 34 34 35 34 32 31 30 30 28 26 24 24 23 23 23 23 22 21 21 21 21 20 19 19 19 20 19 20 20 19 19 19 18 18 18 19 19 18 18 19 18 18 18 18 18 18
36 35 34 34 34 34 33 31 30 28 27 26 25 24 24 24 24 23 23 22 21 21 21 20 20 19 18 19 20 20 20 20 20 19 19 19 18 18 18 18 18 18 18 18 18 18 18 18 18
35 34 34 34 34 33 33 31 29 27 27 26 25 25 25 25 24 23 23 22 21 21 21 21 20 19 18 19 19 19 19 19 19 19 19 18 18 18 18 18 17 18 18 17 17 17 17 17 18
34 34 34 34 34 34 33 31 29 27 27 26 26 26 25 25 24 23 23 22 22 21 21 20 19 19 19 19 18 18 19 20 20 19 19 18 18 18 18 17 17 17 17 18 17 16 17 17 18
35 35 33 34 34 32 23 29 29 28 28 27 27 26 26 25 24 24 23 22 22 21 21 20 20 20 19 19 18 18 18 19 19 20 19 19 18 18 18 18 18 18 18 17 18 17 17 18 17
35 34 33 33 34 30 23 30 30 30 29 28 28 27 26 26 25 24 23 21 22 21 21 20 20 21 20 19 18 18 19 19 19 19 19 19 19 18 18 18 19 18 18 17 17 18 17 17 17
34 34 35 34 34 34 30 30 31 30 30 29 28 28 27 26 26 25 24 23 23 22 21 21 21 20 19 19 19 18 19 19 18 19 18 18 18 18 18 17 17 17 17 17 17 17 16 17 17
36 35 35 35 35 34 34 32 31 31 31 30 29 28 28 27 26 25 24 23 23 23 22 21 20 19 19 19 19 18 18 18 18 18 18 18 18 18 18 18 17 17 17 18 18 17 17 16 16
35 35 35 35 35 34 34 33 33 32 31 31 30 29 29 28 27 25 24 24 23 23 22 21 20 19 19 19 19 19 18 20 20 19 18 17 17 17 16 17 17 17 18 17 17 17 16 16 16
34 34 35 34 34 34 33 33 32 32 31 31 30 29 29 28 28 26 25 24 24 23 22 21 20 20 19 19 20 19 19 19 20 20 19 19 17 17 16 16 16 16 16 17 16 16 15 16 16
34 35 35 35 33 32 34 32 31 32 32 32 31 30 30 29 28 27 26 25 25 24 22 21 20 20 19 19 20 19 19 20 19 19 18 17 16 16 15 15 15 15 15 16 16 15 15 16 16
34 36 35 34 34 33 32 33 31 30 31 32 31 31 30 29 28 28 27 26 25 24 22 21 20 19 20 18 20 19 19 19 19 18 17 16 17 15 15 15 15 14 15 15 15 15 15 15 15
35 34 34 34 34 32 33 30 34 30 32 32 32 31 30 29 28 28 27 26 25 23 22 21 19 21 20 18 18 17 17 17 17 17 16 17 17 17 16 15 15 14 14 14 14 14 15 15 15
34 33 31 31 32 32 34 33 33 35 35 34 34 31 31 30 29 28 27 26 24 23 22 21 19 21 20 18 18 18 17 16 16 16 17 16 17 17 16 15 14 14 14 13 14 14 14 14 14
33 34 33 30 32 33 33 31 33 35 34 33 33 33 31 30 29 28 27 25 23 23 22 21 21 22 19 18 17 17 16 17 17 17 15 16 16 16 15 14 14 14 14 14 14 14 14 14 14
33 33 36 34 34 33 33 33 34 34 33 33 33 32 32 30 29 28 27 25 23 22 21 21 22 20 18 18 17 16 16 15 16 16 15 16 16 16 15 14 14 14 14 14 13 14 14 13 14
34 35 33 33 30 30 33 32 33 32 33 33 33 32 31 31 29 28 27 25 24 23 22 21 20 20 18 18 18 18 17 16 15 15 14 14 14 14 14 14 14 14 14 14 14 14 14 13 13
33 33 34 34 33 32 31 33 35 33 33 33 33 32 31 31 29 28 27 25 24 23 22 21 20 19 18 18 18 17 16 16 15 15 15 15 15 14 14 14 14 14 14 14 14 13 13 13 13
35 34 34 32 31 32 32 32 35 34 34 33 32 32 31 30 28 27 27 26 24 23 22 21 21 20 19 19 18 17 16 16 15 15 15 14 14 14 14 14 14 14 14 14 14 13 13 13 13

GFSSGP_850_temp_006.txt.gz
Temp
26 25 25 27 29 33 30 31 33 31 31 30 25 22 22 20 27 21 20 20 19 19 20 19 19 19 19 19 19 19 19 19 19 19 19 19 19 19 19 19 19 19 19 19 19 19 19 19 19
27 25 28 29 33 31 30 31 30 31 31 30 29 27 26 24 23 21 20 19 19 19 19 19 19 19 19 19 19 19 19 19 19 19 19 19 19 19 19 19 19 19 19 19 19 19 19 19 19
27 25 29 33 33 31 30 32 32 32 31 30 28 27 26 25 23 21 20 20 19 19 20 19 19 19 19 19 19 19 19 19 19 19 19 19 19 19 19 19 19 18 19 19 19 19 19 19 19
28 28 31 34 32 33 32 32 32 32 30 28 28 27 26 24 22 21 20 19 19 19 20 19 19 19 19 19 19 19 19 19 19 19 19 19 19 19 19 19 19 19 19 19 19 19 19 19 19
25 24 33 33 33 34 34 33 32 32 31 29 27 27 26 23 22 21 20 20 19 19 20 20 20 20 19 19 20 20 20 19 19 19 19 19 19 19 19 19 19 19 19 19 19 19 19 19 19
27 28 33 32 33 32 34 33 33 32 30 28 27 26 25 24 23 22 21 20 20 19 19 20 20 19 19 19 19 19 20 19 19 19 19 19 19 19 19 19 19 19 19 19 19 19 19 19 19
26 29 33 31 29 27 25 33 33 31 29 29 27 26 25 25 24 23 23 21 21 19 18 20 20 20 20 19 19 19 19 19 19 19 19 19 19 19 19 19 19 19 19 19 19 19 19 19 19
26 27 33 32 31 28 27 33 32 31 30 29 27 26 26 25 25 23 23 21 20 20 19 18 19 20 19 19 19 19 19 19 19 19 19 19 19 19 19 18 18 19 19 19 19 19 19 19 19
30 31 34 33 34 32 33 33 32 31 30 29 29 26 25 25 25 24 22 21 20 20 19 19 19 18 19 19 19 19 19 19 19 19 19 19 18 18 18 19 19 18 19 19 19 19 19 19 19
36 34 34 35 36 28 24 30 32 31 31 30 28 26 25 25 25 24 23 22 22 20 20 19 19 19 19 19 19 19 19 19 19 19 18 19 18 18 18 18 18 18 19 19 18 18 18 18 18
37 36 36 35 34 30 26 29 28 21 31 29 27 26 25 25 25 25 24 23 23 22 22 21 20 20 19 19 20 20 20 19 19 19 19 19 19 18 18 18 18 18 19 19 18 19 18 18 18
36 36 36 36 33 33 34 29 23 22 24 28 27 26 25 25 25 25 25 23 23 22 22 21 21 20 20 20 20 20 19 20 20 20 19 19 19 18 18 19 19 19 19 19 19 19 19 18 19
36 36 35 35 34 33 32 31 27 25 27 28 27 26 25 25 25 24 24 23 22 22 22 21 21 20 19 20 20 20 20 20 20 19 19 19 19 19 19 19 18 18 18 18 18 18 18 18 18
36 36 35 35 34 33 32 31 29 29 28 27 26 26 26 25 25 24 24 23 22 22 22 21 21 20 20 20 20 19 20 19 20 20 19 20 19 18 19 18 18 18 18 18 18 18 18 18 18
35 35 35 35 34 33 33 31 29 28 28 27 27 26 26 26 25 25 24 23 22 22 22 22 21 20 20 20 20 20 20 20 20 20 20 20 19 19 18 18 19 19 18 18 18 18 18 18 18
35 35 34 35 32 30 32 29 30 29 28 28 28 28 27 26 25 24 24 23 23 22 22 21 21 21 20 20 20 20 20 19 19 20 20 20 19 19 18 19 19 19 19 19 18 18 17 17 17
35 34 33 33 32 32 31 30 30 30 30 29 29 28 27 26 26 24 23 23 23 22 22 21 21 21 20 20 20 19 18 19 19 19 20 20 19 19 18 18 18 18 18 18 17 17 17 17 17
34 33 34 33 33 32 32 31 32 31 31 30 29 28 28 27 26 25 23 23 22 22 21 21 21 21 20 19 19 19 18 19 19 19 19 19 19 19 18 18 18 18 18 18 18 17 17 17 17
36 36 33 34 33 32 32 31 32 32 31 30 30 28 28 28 27 26 25 23 23 23 22 21 21 20 20 20 20 19 19 19 20 20 19 19 19 18 18 18 18 18 17 17 17 17 17 17 17
36 36 35 36 36 35 31 31 32 33 32 31 30 29 29 28 27 26 25 25 24 23 22 22 21 20 20 20 20 20 20 19 19 19 19 19 18 18 17 17 17 17 17 17 17 17 17 17 17
36 35 35 35 36 35 34 31 27 31 33 32 31 30 29 29 27 26 25 25 24 23 22 22 21 20 20 20 20 20 19 19 20 19 19 18 18 18 17 16 16 16 16 16 16 16 16 16 16
34 36 36 36 35 33 34 31 27 30 32 33 32 31 30 29 28 26 25 25 25 23 22 22 21 20 20 20 20 20 20 20 20 20 19 19 18 18 17 17 16 16 16 16 16 16 16 16 16
34 36 35 36 35 34 34 32 30 32 31 32 32 31 31 30 29 27 26 26 25 24 23 21 20 20 20 22 21 20 19 19 19 19 18 18 17 17 17 16 15 15 15 15 15 15 15 15 15
36 35 36 35 34 32 34 33 29 29 31 32 32 32 31 31 30 29 27 26 26 24 23 21 20 22 22 22 20 19 18 18 18 18 17 17 17 17 17 16 16 16 15 15 15 15 15 15 15
36 34 32 31 31 31 35 34 33 33 34 32 25 23 32 31 30 29 28 26 26 24 23 21 21 22 23 21 19 18 18 17 17 17 17 17 17 17 16 16 15 14 14 14 14 14 15 14 14
34 34 32 30 32 33 35 32 33 35 35 32 31 30 32 31 31 29 29 27 25 24 23 21 21 23 22 20 19 18 18 17 17 17 17 17 16 16 16 16 14 14 14 14 14 14 14 14 14
34 33 35 34 35 33 34 34 35 35 35 34 34 34 32 32 31 30 29 27 25 24 23 22 21 22 22 19 18 18 17 17 18 17 17 17 16 16 16 15 15 14 15 15 15 14 14 14 14
35 35 33 33 31 31 33 33 33 33 33 34 34 34 33 31 31 30 29 27 25 23 23 22 21 21 21 19 19 18 17 17 16 16 17 16 16 16 15 15 14 14 14 14 14 14 14 14 14
35 34 34 35 34 32 32 30 33 33 33 34 34 33 33 33 31 30 29 27 25 24 22 22 21 20 19 19 18 18 18 17 16 16 15 15 15 15 15 14 14 14 14 14 14 14 14 13 13
36 34 34 32 31 32 32 32 35 34 34 34 33 33 32 32 31 30 29 27 24 24 23 22 21 20 19 18 18 18 17 17 16 16 15 15 15 15 14 14 14 14 14 14 14 14 14 14 14

GFSSGP_850_temp_009.txt.gz
Temp
26 25 23 22 22 24 27 27 27 24 22 22 22 21 22 21 22 19 19 19 19 19 19 18 18 18 19 19 18 18 18 18 19 19 19 19 19 19 19 19 19 19 19 20 19 19 19 19 19
26 26 23 25 25 25 25 28 27 27 24 22 23 23 22 21 20 19 19 19 19 19 19 19 19 19 19 18 18 19 19 19 19 19 19 19 19 19 19 19 19 19 19 19 19 19 19 19 19
27 26 26 24 26 26 26 28 29 28 23 24 24 24 22 20 20 19 19 19 19 20 20 19 19 19 19 19 19 19 19 19 19 19 19 19 19 20 20 20 19 19 19 19 19 19 19 19 19
29 27 27 28 27 29 29 29 29 28 27 26 24 23 21 21 20 20 19 19 19 20 20 19 19 19 19 19 19 20 20 19 19 19 19 19 19 20 20 20 19 19 19 19 20 19 19 19 19
28 26 23 27 29 30 30 31 29 28 27 25 23 22 21 20 20 20 20 20 20 20 19 19 19 19 19 19 19 19 20 19 19 19 19 19 20 19 19 19 19 19 19 19 19 19 19 19 19
25 25 23 27 28 29 31 30 29 27 26 24 22 22 21 21 21 20 20 20 20 20 20 20 20 20 20 19 19 20 19 19 19 19 19 19 19 19 19 19 19 19 19 19 19 19 19 19 19
22 22 21 28 28 28 29 30 28 28 26 26 23 21 21 21 21 20 20 20 20 20 20 20 20 20 20 19 20 20 20 19 19 19 19 19 19 19 19 19 19 19 19 19 19 19 19 19 19
26 23 24 24 28 28 30 30 29 28 26 25 25 23 22 22 21 20 20 20 20 20 20 20 20 20 20 20 20 19 19 19 19 19 20 19 19 20 20 19 19 19 19 19 19 19 19 19 19
28 22 25 22 24 27 30 30 30 28 27 26 26 25 24 22 21 21 20 20 20 20 20 19 19 19 19 20 20 20 20 19 19 19 19 19 19 19 20 19 18 19 18 18 19 18 18 18 18
27 25 29 27 29 26 27 27 25 28 28 26 25 25 24 23 23 22 21 20 20 20 19 19 19 19 19 20 20 20 20 20 20 20 19 19 19 19 19 19 18 19 19 18 19 18 18 19 18
29 29 31 31 30 27 27 26 29 26 27 26 25 25 25 24 23 22 22 21 22 21 20 19 20 19 19 19 19 20 20 20 20 19 19 18 18 18 18 18 18 19 18 18 18 19 19 18 18
33 33 32 30 30 28 26 24 27 29 26 26 25 25 25 24 23 23 24 22 22 21 20 20 20 19 19 19 20 20 20 20 20 19 20 18 19 19 19 18 18 18 18 18 18 18 18 18 18
33 33 32 31 30 27 25 24 25 26 27 26 25 25 25 25 25 23 23 22 22 22 21 21 20 20 19 19 19 18 20 19 20 19 19 19 19 19 19 19 19 19 19 19 19 19 19 19 18
35 35 33 33 31 30 28 25 27 26 27 26 25 25 25 25 24 24 23 23 22 22 21 21 21 21 20 20 20 20 20 19 20 19 19 19 19 19 19 19 19 19 19 18 18 18 18 18 18
35 32 33 32 31 30 29 27 27 27 27 26 25 25 25 25 24 24 24 23 22 22 21 21 21 21 20 20 20 20 19 20 20 19 20 20 20 20 19 19 19 18 18 18 18 18 18 18 18
33 31 28 30 30 30 28 25 27 27 27 26 26 26 25 25 25 24 24 23 22 22 22 22 21 21 21 20 20 20 20 20 20 19 20 20 20 19 18 18 19 18 18 18 18 18 18 17 17
31 28 28 29 30 30 28 26 28 28 27 26 26 26 26 26 25 24 24 23 23 22 22 22 22 21 21 20 20 19 20 20 19 19 19 20 20 19 18 18 18 18 18 18 18 18 17 17 17
28 30 29 29 29 30 28 27 28 28 28 27 27 27 26 25 25 24 24 23 23 22 22 22 22 21 21 20 20 19 19 19 19 19 19 19 19 19 18 18 18 18 17 18 17 17 17 17 17
31 31 30 31 31 29 28 28 28 29 29 29 28 27 26 26 25 24 24 23 23 23 22 22 22 21 20 20 19 20 20 19 19 19 19 19 18 19 18 17 18 17 17 16 16 16 16 16 17
32 31 29 30 31 29 28 28 29 25 27 29 28 28 27 27 24 24 24 23 23 22 22 22 21 21 20 20 21 20 20 20 20 19 19 18 18 18 17 17 16 17 17 17 17 17 16 16 16
31 31 30 30 31 31 28 26 22 26 28 29 29 28 28 27 25 24 24 23 22 22 22 22 21 21 22 21 21 19 19 19 19 19 19 18 18 18 18 17 17 16 16 16 16 16 15 16 16
29 34 34 33 30 26 28 23 22 23 25 28 29 28 28 26 26 25 24 24 23 23 22 22 22 21 21 21 20 19 19 19 19 19 19 18 18 18 17 16 16 16 16 16 15 15 15 15 15
31 33 33 32 30 29 29 25 24 23 24 28 28 28 29 27 26 25 25 24 24 23 23 22 22 21 21 20 20 20 20 19 19 19 19 19 18 17 17 16 16 16 16 16 15 15 15 14 14
34 33 32 30 27 25 27 26 22 24 26 29 30 29 29 27 26 26 25 25 24 24 23 22 21 21 21 21 22 21 20 20 19 19 19 18 17 17 17 17 16 16 16 16 15 15 15 14 14
33 29 25 25 25 25 27 28 24 28 30 29 26 30 30 28 26 26 25 25 24 23 23 23 21 21 22 22 21 21 20 20 19 19 18 17 17 16 16 16 16 16 15 15 14 14 14 14 14
29 27 23 25 25 27 30 28 28 31 30 30 31 32 31 29 27 26 26 25 25 24 23 23 22 21 22 22 21 20 20 19 17 17 17 17 17 16 16 16 15 15 15 14 14 14 14 14 13
29 27 29 27 29 26 28 30 30 29 29 30 29 29 30 30 29 27 27 26 25 24 23 24 23 22 23 21 21 20 19 19 17 17 17 17 17 16 15 15 15 15 15 14 14 14 14 14 13
29 30 28 24 26 26 27 28 27 27 27 28 26 27 30 30 28 29 27 26 26 24 24 24 23 23 23 22 20 20 19 19 18 18 18 18 17 16 16 16 15 15 15 15 14 14 14 14 14
30 28 28 26 24 24 25 26 28 27 27 27 28 29 30 28 29 27 27 27 26 24 24 23 23 22 22 21 20 19 18 18 19 18 18 17 16 15 15 15 15 15 14 14 14 14 14 14 14
30 29 26 23 26 25 24 26 31 28 28 29 30 31 32 31 30 29 27 26 25 24 23 23 23 22 21 21 20 18 18 18 18 17 17 16 15 15 15 15 15 14 14 14 14 14 14 14 13

GFSSGP_850_temp_012.txt.gz
Temp
24 24 23 22 22 23 22 24 24 22 21 21 21 22 21 21 22 19 18 18 19 18 18 19 19 19 19 19 18 18 19 19 19 19 19 19 19 19 19 19 19 19 19 20 19 19 19 19 19
24 22 22 23 22 22 22 24 22 23 23 23 22 22 21 20 19 18 18 19 19 19 19 19 19 19 19 19 18 19 19 19 19 19 19 19 20 20 19 19 19 19 19 19 19 19 19 19 19
24 24 23 22 22 24 23 25 24 24 23 22 23 21 20 18 18 18 19 19 19 19 19 19 19 19 19 19 19 19 19 19 19 19 20 20 20 19 19 19 19 19 19 19 19 19 19 19 18
27 24 25 25 25 26 25 24 25 24 23 24 22 21 20 19 19 19 19 19 20 19 19 19 19 19 19 19 19 19 19 19 19 19 20 20 19 19 19 19 19 19 19 19 19 19 19 19 18
26 26 23 25 27 26 26 25 24 24 24 22 22 20 19 19 19 19 19 19 20 19 19 19 19 18 19 19 19 19 19 19 19 19 19 19 19 20 20 20 19 19 19 19 19 19 19 19 18
26 25 22 22 26 27 27 26 26 24 22 21 20 20 19 19 19 19 19 19 20 20 19 19 18 19 19 19 19 19 19 19 19 19 19 19 19 19 19 19 19 19 19 19 19 19 19 19 19
25 22 23 25 25 26 26 26 24 23 22 22 21 20 19 19 19 19 19 20 20 20 20 19 19 19 19 19 19 19 19 19 19 19 19 19 19 19 19 19 19 19 19 19 19 18 18 19 18
29 23 24 24 25 25 26 26 25 24 24 22 22 20 19 20 20 20 20 20 20 20 20 19 19 19 19 19 19 19 19 19 19 19 19 19 19 19 19 19 19 19 18 18 18 18 18 18 18
28 21 23 25 26 27 28 26 26 25 23 23 23 21 21 20 19 19 19 19 19 19 20 19 19 20 20 20 20 20 20 20 20 20 20 19 19 19 19 18 18 18 18 18 18 18 18 18 18
26 23 25 26 26 26 27 27 26 25 24 24 23 22 20 20 19 20 19 19 19 19 19 20 20 20 20 20 20 20 20 20 20 20 20 20 19 19 18 18 18 18 18 18 18 18 18 18 18
27 28 28 27 28 27 26 26 26 25 24 24 22 21 21 20 20 20 20 21 22 21 20 20 20 19 20 20 19 20 20 20 20 20 19 19 19 19 19 18 18 18 18 18 18 18 18 18 18
27 28 29 29 28 27 26 25 25 25 25 24 23 22 21 21 21 21 21 21 21 21 20 20 20 20 19 20 19 19 19 20 20 19 19 19 19 19 18 18 19 18 18 18 18 18 18 18 18
27 27 29 28 29 28 26 25 25 25 25 24 22 22 22 22 22 21 23 22 21 21 20 20 19 20 20 20 19 19 20 19 19 20 19 19 19 19 19 19 19 18 18 18 18 18 18 18 18
30 29 28 28 27 27 25 24 26 25 24 25 24 23 22 23 22 21 22 22 21 22 21 21 20 20 20 19 19 19 19 19 19 19 19 19 19 19 19 19 19 19 18 18 18 18 18 18 18
30 28 28 27 26 26 26 25 25 25 24 24 24 24 24 23 23 23 22 22 22 22 21 21 21 20 20 20 19 19 19 19 19 19 19 19 20 19 19 19 19 19 18 18 18 18 18 18 18
28 28 25 26 27 27 26 23 25 25 24 24 24 24 24 24 24 23 23 22 22 22 21 21 21 20 20 20 20 20 20 19 19 19 19 19 19 19 19 18 18 18 18 18 18 17 17 17 17
25 26 26 26 28 27 25 23 26 26 25 24 24 24 24 24 24 24 23 23 23 22 22 22 21 21 21 20 20 20 20 19 19 19 19 18 19 19 19 18 18 18 17 17 17 17 17 17 17
26 25 27 27 27 27 25 24 26 26 25 25 25 25 24 24 24 24 24 23 22 22 22 22 21 21 21 20 20 20 20 20 19 19 19 19 18 18 18 17 18 18 18 17 17 17 16 16 16
28 27 27 29 28 26 25 25 25 26 26 25 25 25 25 25 25 24 24 23 22 22 22 22 21 21 21 21 20 20 20 19 19 19 19 18 18 18 18 17 18 18 17 16 16 16 16 16 15
28 28 28 29 29 27 25 25 26 26 26 25 25 25 25 25 24 24 23 23 23 22 22 22 21 21 21 21 20 20 19 19 19 18 18 18 18 18 18 18 17 16 16 16 16 16 16 16 15
28 28 29 28 28 27 26 24 24 26 27 26 26 26 26 25 24 24 24 23 23 22 22 22 21 21 21 21 20 20 20 20 19 19 19 18 18 18 18 18 17 17 16 16 16 16 15 16 15
26 29 31 29 28 25 26 23 23 25 25 25 26 25 25 25 25 24 24 23 23 23 22 22 21 22 21 21 20 20 20 19 19 18 18 19 18 18 18 17 17 16 16 16 15 15 15 15 15
28 29 29 29 28 25 26 22 26 22 24 24 25 26 25 26 26 25 24 24 23 23 22 22 23 22 22 21 22 21 19 19 19 18 18 18 18 18 17 16 16 16 16 16 15 15 15 14 15
31 31 25 24 22 22 25 25 22 22 25 25 24 26 26 25 25 25 25 24 24 23 23 22 23 23 22 22 22 21 19 19 19 18 18 18 18 18 17 16 16 16 16 16 15 15 15 14 14
30 24 23 25 23 22 21 25 26 24 26 26 25 26 27 26 25 25 24 24 24 23 23 23 24 23 23 22 21 21 20 20 20 19 18 19 18 17 16 16 16 16 16 16 15 14 14 14 14
26 24 21 24 23 24 24 25 27 26 27 26 28 27 27 26 25 25 25 25 24 24 24 23 24 24 23 23 21 22 21 21 20 19 19 18 16 16 16 16 16 16 15 15 14 14 14 14 14
28 25 25 24 24 23 24 26 27 27 26 27 26 27 27 25 25 24 25 25 25 24 24 24 24 24 24 22 22 22 22 21 20 19 18 16 16 16 16 15 15 15 15 15 14 14 14 14 14
29 26 25 20 24 25 24 26 24 26 25 26 26 27 26 26 25 25 25 25 25 24 24 24 24 23 23 22 22 21 21 21 20 19 18 17 17 16 15 15 15 15 14 14 14 14 14 14 14
27 26 24 23 21 22 22 23 24 24 26 26 26 28 27 26 26 25 25 26 27 25 24 24 24 22 22 22 22 22 20 20 20 18 18 18 17 16 16 16 15 15 15 15 14 14 14 14 13
26 26 23 23 24 21 21 23 26 25 25 27 27 28 29 28 28 27 27 26 26 25 24 24 23 22 22 22 21 21 20 20 20 19 19 18 18 17 17 15 15 15 15 14 14 14 14 14 14

GFSSGP_850_temp_015.txt.gz
Temp
23 21 21 19 21 21 22 22 23 22 22 21 22 22 19 19 21 18 18 18 18 18 17 18 18 18 18 18 18 18 18 18 18 19 19 19 19 19 19 19 19 19 19 19 19 19 18 18 18
24 22 21 20 21 21 21 23 22 22 22 22 22 21 20 19 18 18 17 18 18 18 18 18 18 19 18 18 18 18 19 18 19 19 19 19 19 19 19 19 20 20 20 19 19 19 19 19 18
22 22 21 21 21 21 21 22 22 22 22 22 21 21 19 18 18 18 18 18 18 18 18 18 19 18 18 19 19 19 19 19 19 19 19 20 20 19 19 19 20 19 19 19 19 19 19 19 18
23 21 22 22 23 24 23 23 23 22 22 22 20 20 19 19 18 19 18 18 19 18 19 19 19 19 19 19 19 19 19 19 19 19 19 19 19 19 19 19 19 19 19 19 19 18 18 18 18
22 24 22 23 24 24 24 24 23 22 23 21 21 20 19 19 19 19 19 19 19 19 19 19 19 19 20 20 19 19 19 19 19 19 19 19 19 19 19 19 19 19 19 19 19 18 18 18 18
23 24 21 22 24 24 23 24 23 23 22 20 19 19 18 19 19 19 19 19 19 19 19 19 19 19 19 19 19 19 19 19 19 19 19 19 19 19 19 19 19 19 19 19 18 18 18 18 18
22 21 22 23 23 23 24 24 22 21 21 21 20 19 17 18 19 19 19 19 19 19 19 19 19 19 19 19 19 19 19 19 19 19 19 19 19 19 19 19 19 18 18 18 18 18 18 18 18
26 21 24 23 23 23 24 23 22 23 22 21 21 18 18 19 19 18 18 19 19 19 19 19 19 19 19 19 19 19 19 19 19 19 19 19 19 19 18 18 18 18 18 18 18 18 18 18 18
28 21 22 24 23 23 25 23 23 23 21 22 21 20 20 19 19 18 18 18 18 19 19 19 19 19 19 19 19 19 19 19 19 19 19 19 19 18 19 18 18 18 18 18 17 18 18 18 18
25 22 25 25 25 24 25 24 23 23 22 21 21 20 19 19 19 19 19 19 19 19 19 19 19 19 19 19 19 19 19 19 19 19 19 19 19 18 18 18 18 18 18 18 18 18 18 18 18
25 24 26 26 26 27 25 25 24 22 22 21 20 20 19 19 19 19 20 21 21 20 19 19 19 19 19 20 19 20 19 19 19 19 19 19 19 19 19 18 18 18 18 18 18 17 18 18 18
26 27 28 27 26 26 25 25 24 23 23 22 23 21 19 19 19 20 20 20 20 20 20 20 19 19 20 19 20 20 19 19 19 19 19 19 19 19 19 19 18 18 18 18 18 18 17 18 18
26 27 28 28 26 26 25 25 24 24 23 22 21 20 19 20 20 20 21 21 20 20 20 20 19 20 19 19 19 19 19 19 19 19 19 19 19 19 19 19 18 18 18 18 18 18 18 18 18
28 27 27 27 25 25 24 24 25 24 23 21 20 20 20 20 20 20 20 21 21 21 20 20 20 20 19 19 19 19 19 19 19 19 19 19 19 19 19 19 18 18 18 18 18 18 18 18 18
29 25 25 25 25 24 25 24 23 23 22 21 20 20 21 20 20 21 21 21 22 21 21 21 20 20 20 20 20 19 19 19 19 19 19 19 19 19 19 18 18 18 18 18 18 18 17 17 17
25 25 24 25 25 25 25 22 23 23 22 22 21 21 21 21 21 22 22 22 22 22 21 21 20 20 20 20 19 19 19 19 19 19 19 19 19 18 19 18 18 18 18 17 17 18 17 17 17
25 24 23 24 26 25 23 22 24 23 24 23 22 21 22 22 22 22 22 22 22 22 21 21 21 20 20 20 19 19 19 19 19 18 19 19 18 18 18 18 18 18 17 17 17 17 17 17 17
25 23 24 24 26 25 23 22 23 23 23 23 23 24 24 23 23 23 23 22 22 22 22 21 21 21 21 20 19 19 19 19 19 19 18 18 18 18 18 18 17 18 17 17 17 17 16 16 16
25 25 25 26 26 24 23 22 23 23 23 23 23 23 23 24 24 24 23 23 22 22 22 21 21 21 20 20 20 20 20 19 19 19 18 18 18 18 18 18 18 18 17 17 16 16 16 16 15
26 25 25 27 26 24 23 23 24 24 23 23 23 23 23 24 24 23 23 23 22 22 22 21 21 21 21 21 21 20 19 19 19 18 18 18 18 18 18 18 18 17 17 15 16 15 15 16 15
25 25 25 26 26 25 23 22 23 24 25 24 24 24 23 24 24 24 23 23 23 22 22 21 21 21 21 21 20 20 19 19 19 18 19 19 18 18 18 18 17 17 16 16 16 16 15 15 15
25 26 27 26 26 23 24 21 21 23 23 24 24 24 24 24 24 24 24 23 23 22 22 22 22 21 21 21 21 20 20 19 19 19 19 18 18 18 18 18 17 16 16 15 15 15 15 15 14
26 26 27 26 26 23 23 22 22 22 22 24 24 24 24 24 25 24 24 24 24 23 22 22 22 21 21 21 21 21 20 19 19 18 18 18 18 18 18 17 16 16 15 16 15 15 15 14 14
28 28 22 20 21 21 23 23 21 21 24 24 25 25 24 24 24 25 25 24 24 23 23 22 22 22 22 22 22 22 21 21 19 19 18 18 18 18 17 16 16 15 15 16 15 15 14 14 14
26 23 21 22 21 21 21 23 24 23 26 26 25 24 25 24 24 24 23 24 24 24 24 23 22 23 23 23 23 22 22 21 20 19 18 18 18 17 17 17 16 15 15 15 15 14 14 14 14
24 22 20 22 20 23 20 22 26 27 27 27 27 26 25 24 25 24 25 25 24 24 24 23 23 23 23 23 23 22 22 21 20 20 19 18 18 18 17 16 16 15 15 15 15 15 14 14 14
25 23 23 22 21 21 20 23 26 25 25 26 27 26 25 25 24 24 25 25 25 24 24 24 23 23 23 23 23 22 21 21 21 20 20 19 18 17 16 16 16 15 15 15 15 15 14 14 14
27 24 24 19 23 23 22 25 24 27 24 23 25 25 25 26 24 25 25 25 25 25 25 25 24 23 23 23 23 22 22 21 20 20 19 19 17 16 16 16 15 15 15 15 14 14 14 14 13
25 23 22 20 19 21 22 22 21 26 23 22 24 26 26 26 26 25 25 25 26 25 25 25 24 23 23 23 23 22 21 21 20 21 20 19 18 18 17 16 15 15 15 14 14 14 14 13 13
24 24 23 24 22 18 20 22 25 23 22 24 25 26 26 28 27 26 26 25 25 25 25 24 24 24 24 22 22 22 21 21 20 20 20 19 19 18 17 16 16 15 15 14 14 14 14 14 14

GFSSGP_850_temp_021.txt.gz
Temp
21 22 21 21 25 26 24 24 24 23 23 22 22 23 20 19 22 22 18 17 17 17 17 17 18 18 18 17 17 18 18 18 18 18 18 19 19 19 19 19 19 19 19 19 19 18 18 18 18
22 21 21 20 25 25 24 24 24 24 22 22 21 21 21 19 17 17 18 17 17 18 18 17 18 18 18 18 18 18 18 18 18 18 19 18 19 19 19 19 19 19 19 19 18 18 18 18 18
21 21 21 25 25 25 24 24 24 23 22 22 21 20 20 18 16 17 18 18 17 17 18 18 18 18 18 18 18 18 18 18 18 18 18 18 19 19 19 19 19 19 19 19 18 18 18 18 18
22 21 21 26 26 24 24 24 23 23 22 21 21 21 18 17 17 18 18 18 18 18 17 18 18 18 18 18 18 18 18 18 18 19 19 19 19 19 19 19 19 19 19 18 18 18 18 18 18
21 21 26 26 25 25 25 24 24 24 22 22 21 20 19 17 18 19 18 18 18 17 18 18 18 18 18 18 18 19 19 19 19 19 19 19 19 19 19 19 19 18 18 18 18 18 18 18 18
22 22 27 27 25 25 24 24 23 23 22 21 21 21 18 18 18 18 18 17 18 17 17 18 18 18 18 19 19 19 19 19 19 19 19 19 19 19 19 19 19 18 18 18 18 18 17 18 18
25 26 26 26 25 25 24 24 24 23 22 22 21 21 17 17 19 19 18 17 16 17 17 18 18 18 19 19 19 19 19 19 19 19 19 19 19 19 19 19 19 18 18 18 18 18 17 17 18
24 27 26 26 26 26 24 24 23 23 22 20 21 20 18 17 19 19 18 17 17 17 17 18 18 19 19 18 19 19 19 19 19 19 19 19 19 19 18 18 18 18 18 18 18 18 17 18 18
24 28 27 26 26 26 24 24 22 22 21 21 21 20 20 17 19 18 17 16 17 18 18 18 19 19 19 19 19 19 19 19 19 19 19 19 19 19 19 18 18 18 18 18 18 18 17 17 17
27 28 28 28 28 27 25 25 23 22 22 22 20 19 19 17 18 17 17 17 17 18 19 19 19 19 19 19 19 19 19 19 19 19 19 19 19 18 18 18 18 18 18 18 18 18 18 18 18
27 29 28 27 27 27 25 24 23 23 24 22 20 19 18 17 17 18 18 18 19 19 19 19 19 19 19 19 19 19 19 19 19 19 19 19 18 18 18 18 18 18 18 18 18 18 18 18 18
28 28 28 28 26 26 26 25 24 23 24 23 20 19 18 18 18 18 18 20 20 20 20 20 19 19 19 19 19 19 19 19 19 19 19 18 18 18 18 18 18 18 18 18 18 18 18 18 18
29 29 27 27 26 26 25 25 25 24 22 21 20 19 18 18 18 18 19 19 20 20 20 20 20 19 19 19 19 19 19 19 19 19 19 19 18 18 18 18 18 18 17 17 18 18 18 18 18
28 27 26 26 26 25 26 25 25 23 21 20 20 19 19 19 19 18 18 19 20 20 20 20 20 20 19 19 19 19 19 19 19 19 19 19 19 19 19 18 18 17 17 17 17 17 17 18 18
27 27 26 26 26 26 26 24 25 24 21 21 20 20 20 19 19 19 21 21 21 20 20 20 20 20 19 19 19 19 19 19 19 19 18 19 19 19 18 18 18 18 18 17 18 17 17 17 17
28 28 28 26 26 25 27 28 26 23 22 22 21 20 20 19 19 19 20 21 20 20 21 20 20 20 20 20 19 19 19 19 19 18 19 19 19 18 19 18 18 18 17 17 17 17 17 17 17
27 29 28 25 27 26 26 27 27 23 23 22 22 21 21 20 19 20 20 21 21 21 21 21 20 20 20 20 20 19 19 19 18 18 18 18 18 18 18 18 18 18 18 17 17 17 17 17 17
28 28 28 27 26 26 26 27 25 23 24 23 22 22 21 21 20 20 21 21 21 21 21 21 20 20 20 20 20 19 19 19 19 19 18 18 18 18 18 18 17 18 17 18 17 17 17 16 16
30 29 29 27 27 27 27 26 26 24 23 24 23 22 22 21 21 21 22 21 21 20 21 21 21 21 20 20 20 19 19 19 19 19 18 18 18 18 18 18 18 18 18 17 17 17 16 15 16
29 29 30 28 27 27 27 26 27 25 24 24 23 23 22 22 21 20 21 21 21 21 21 21 21 20 20 20 20 20 20 19 18 18 18 18 18 18 18 18 18 18 17 17 17 17 15 16 15
28 29 29 29 27 27 27 27 27 25 24 24 23 23 23 22 22 21 21 21 22 22 21 21 21 21 21 20 20 20 19 19 18 18 18 18 18 18 18 18 18 17 17 17 17 17 16 14 15
29 28 29 29 28 27 27 27 27 27 25 25 24 24 24 23 22 22 22 22 23 23 22 22 22 21 21 21 20 20 20 19 19 19 19 18 18 18 18 18 18 18 17 17 16 16 16 16 15
29 28 29 29 29 28 26 26 30 25 25 26 25 25 24 24 24 23 22 23 24 24 23 22 22 22 21 21 21 20 20 19 19 19 19 18 18 18 18 18 17 17 17 16 16 16 16 15 15
27 27 26 27 28 25 28 27 30 27 27 28 27 26 25 25 24 24 23 24 24 24 23 23 22 22 21 21 21 21 20 20 19 20 20 19 18 18 18 17 17 17 16 15 15 15 15 15 15
28 29 26 26 25 26 29 26 29 31 30 30 30 27 26 25 25 24 23 22 25 24 24 23 23 22 22 22 21 21 21 21 20 20 20 19 19 18 18 17 17 16 15 15 15 15 15 14 14
27 29 28 25 26 27 24 26 28 30 31 28 28 28 27 25 25 24 24 25 26 25 25 24 24 23 22 22 22 21 21 21 21 21 21 20 19 18 17 17 17 16 15 15 15 15 15 15 14
27 26 31 28 24 28 28 27 27 29 29 29 30 28 27 26 25 25 24 26 27 26 26 25 24 24 23 23 22 22 21 21 21 22 21 21 19 19 18 17 17 16 15 15 15 15 14 14 14
28 29 27 27 26 26 27 27 30 29 30 30 30 29 28 27 26 25 24 26 27 27 27 26 25 24 24 23 23 22 22 22 21 20 21 21 21 19 18 18 17 16 16 15 15 15 14 14 14
26 27 26 29 28 28 27 29 30 31 32 32 32 30 29 28 26 25 24 24 27 28 27 27 26 25 24 24 24 23 22 21 21 22 20 21 19 19 18 17 17 16 16 15 15 15 14 14 14
30 28 28 28 25 26 28 30 30 30 32 31 30 31 28 27 26 25 24 23 25 27 27 27 27 26 25 25 24 24 22 21 21 20 21 20 19 18 17 17 17 17 16 15 15 14 14 14 14

GFSSGP_850_temp_024.txt.gz
Temp
21 21 19 20 24 27 26 26 28 27 26 25 24 23 24 23 24 23 19 17 17 16 16 17 18 17 17 18 18 18 18 18 18 18 18 19 19 19 19 19 19 19 19 19 19 18 18 18 18
19 19 21 24 28 29 28 28 28 28 26 25 25 25 25 23 21 20 19 18 17 17 17 16 17 18 18 18 18 18 18 18 18 18 19 19 19 19 19 19 19 19 19 19 18 18 18 18 17
20 21 26 30 30 29 29 28 28 26 25 26 25 24 24 21 21 21 19 18 18 17 17 17 18 18 18 18 18 18 18 19 19 19 19 19 19 19 19 19 19 19 19 19 18 18 18 18 18
22 24 26 31 29 29 29 29 27 26 25 25 25 23 21 21 20 20 19 18 18 18 18 18 18 18 18 18 18 19 19 19 19 19 19 19 19 19 19 19 19 19 19 19 18 18 18 18 18
23 26 31 30 29 29 29 28 27 28 26 25 25 24 22 20 20 19 18 19 19 19 17 18 18 18 18 18 19 19 19 19 19 19 19 19 19 19 19 19 19 19 18 18 18 18 18 18 18
28 28 32 30 29 29 29 27 28 27 26 25 25 23 21 20 20 19 19 19 20 18 18 17 18 18 18 19 19 19 19 19 19 19 19 19 19 19 19 19 19 18 18 18 18 18 18 18 18
29 32 32 31 29 29 28 27 28 27 26 26 25 25 21 20 20 20 20 20 20 19 18 17 17 17 18 18 19 19 19 19 19 19 19 19 19 19 19 19 18 18 18 18 18 18 18 18 18
28 32 32 32 31 29 28 28 27 27 27 25 25 24 22 21 20 20 20 20 20 19 17 18 17 17 16 18 19 19 19 19 19 19 19 19 19 19 19 18 18 18 18 18 18 18 18 18 18
28 32 32 31 31 30 28 28 26 26 25 25 25 25 23 20 20 20 20 20 19 19 18 18 18 17 17 17 17 19 19 19 19 19 19 19 18 18 17 18 18 18 18 18 18 18 18 18 18
30 32 32 33 33 31 29 29 27 27 26 25 24 24 21 20 20 20 20 20 19 19 18 19 19 18 18 18 17 17 17 17 17 17 17 17 18 18 18 18 18 18 18 18 18 18 18 19 19
31 32 33 32 32 31 29 29 27 28 27 26 25 23 21 21 21 21 21 20 20 19 19 19 19 18 18 18 18 18 18 18 18 19 19 17 17 18 18 18 18 18 18 19 18 18 18 18 18
31 32 32 32 30 31 30 29 28 27 28 27 25 23 22 21 22 22 21 21 20 19 19 19 18 17 17 18 18 18 19 18 18 18 19 18 18 18 17 18 18 18 18 18 18 19 17 18 18
32 33 32 31 30 31 30 29 29 28 26 26 24 23 22 22 22 22 22 21 20 19 19 19 18 17 17 17 18 18 18 18 19 18 18 18 18 18 18 18 17 17 18 18 18 18 18 18 18
33 32 31 31 31 30 30 29 28 28 25 26 24 23 23 23 23 22 22 21 20 20 20 19 18 17 17 17 17 17 18 18 18 18 18 19 18 18 18 18 18 17 18 18 17 17 17 17 17
32 32 31 31 30 31 30 29 29 27 25 25 24 24 24 23 23 22 22 21 21 20 20 19 18 18 17 17 17 18 18 18 18 18 17 19 19 19 18 18 17 18 18 18 17 17 17 18 18
32 33 32 31 30 30 30 30 30 27 26 26 25 24 24 23 23 22 22 21 21 20 20 19 19 19 18 18 18 18 18 18 19 18 18 18 18 18 18 18 17 18 18 18 17 17 18 18 18
32 32 33 30 30 30 30 31 30 28 27 26 25 25 24 24 23 23 22 21 21 20 20 19 19 19 18 19 18 18 18 18 18 18 18 18 17 18 18 18 18 18 18 17 17 18 17 17 18
32 32 33 32 30 30 30 31 30 28 28 28 26 26 25 24 24 23 22 22 21 21 19 19 19 18 18 18 18 18 18 18 18 18 18 17 18 17 17 18 17 18 18 17 17 17 17 17 17
34 33 33 34 33 31 31 31 31 29 28 29 28 26 26 25 25 24 23 22 22 21 20 19 19 19 18 18 19 19 19 19 18 19 18 17 17 18 17 18 17 17 18 17 16 17 17 17 17
33 33 33 34 32 31 32 31 31 31 29 28 29 28 26 26 25 24 23 23 22 21 20 19 19 19 20 19 19 19 20 20 20 19 18 18 17 17 17 17 17 17 18 17 16 15 17 17 16
33 33 33 33 31 31 32 31 31 32 30 28 28 28 27 26 26 25 24 23 23 22 20 20 20 20 20 20 19 18 18 18 19 19 19 18 17 18 17 17 18 17 17 18 16 16 15 17 16
32 34 34 33 32 31 32 31 33 33 31 30 29 28 28 27 26 26 25 24 23 22 21 20 21 21 21 21 19 19 19 20 21 20 19 19 17 17 17 18 18 17 17 17 16 16 16 16 17
32 34 33 33 32 32 31 31 33 33 32 32 30 29 29 28 27 27 26 25 24 23 22 21 21 22 21 20 20 19 19 20 20 20 18 19 17 17 17 17 18 18 17 16 17 17 16 15 16
33 32 32 33 33 31 32 31 32 33 32 33 33 30 29 29 28 27 27 26 24 24 23 22 21 23 22 21 21 21 20 19 20 19 19 19 18 18 18 17 18 18 16 16 16 16 16 16 15
32 31 30 29 30 30 33 32 32 34 35 35 35 33 30 29 29 28 27 26 25 24 23 23 21 23 23 22 22 22 21 19 18 18 18 19 19 18 18 18 18 17 17 16 16 15 14 14 14
31 32 31 28 30 31 32 30 32 34 34 34 34 33 33 30 29 28 27 27 26 25 24 22 22 24 23 22 22 22 22 19 19 18 19 19 19 18 17 18 17 17 17 16 16 14 14 14 14
31 31 33 32 33 32 32 32 33 34 34 34 34 34 33 32 30 29 28 27 26 25 24 25 25 25 24 23 22 22 22 21 19 19 18 19 19 18 18 18 17 17 16 16 15 14 14 14 14
32 33 31 33 30 29 31 32 32 33 34 35 35 35 34 33 31 30 29 28 27 26 24 24 26 25 25 24 23 23 22 21 20 21 21 19 21 20 20 18 18 17 16 16 16 15 14 14 14
31 31 32 32 32 31 30 32 34 33 34 35 36 36 35 34 32 31 30 29 27 26 25 24 24 26 25 25 24 23 22 21 21 22 22 21 21 21 20 19 19 18 17 16 16 15 15 14 13
32 30 31 31 29 31 32 33 36 35 35 35 35 35 35 34 33 32 30 28 28 26 26 25 24 23 26 26 25 24 23 22 22 22 22 21 21 21 20 18 19 18 17 16 14 15 14 14 13

GFSSGP_850_temp_027.txt.gz
Temp
22 20 19 19 22 27 28 28 29 26 26 26 26 26 26 24 24 20 18 17 16 16 16 17 18 18 18 18 18 18 18 19 19 19 19 19 19 19 19 19 19 19 19 19 19 19 19 18 18
20 20 22 24 24 24 28 29 27 27 28 25 27 26 26 25 21 19 18 18 18 18 18 17 18 18 18 18 18 18 18 19 19 19 19 19 19 19 19 19 19 19 19 19 19 18 18 18 18
22 22 25 27 25 29 29 28 30 29 28 28 28 27 26 24 23 20 19 19 18 18 18 17 18 18 18 18 18 18 19 19 19 19 19 19 19 19 19 19 19 19 19 19 19 18 18 18 18
24 24 26 31 32 32 31 31 30 30 29 28 27 27 25 24 22 21 19 18 18 18 17 18 18 18 18 18 19 19 18 19 19 19 19 19 19 19 19 19 19 19 19 19 19 18 18 18 18
26 28 32 32 31 32 32 31 30 29 29 29 27 26 24 23 23 22 19 19 19 18 18 18 18 18 18 18 18 19 19 19 19 19 19 19 19 19 19 19 19 19 18 18 18 18 18 18 18
29 32 34 32 31 32 32 31 31 31 29 28 27 25 24 23 23 22 21 21 20 20 19 17 18 18 18 18 19 19 19 19 19 19 19 19 19 19 19 19 19 19 19 18 18 18 18 18 18
30 32 34 33 31 32 31 31 32 31 29 29 27 26 24 24 23 23 22 21 21 21 19 18 17 18 19 19 19 19 19 19 19 19 19 19 19 19 19 19 19 19 18 18 18 18 18 18 18
31 34 34 34 33 31 32 31 31 30 30 28 27 26 25 24 23 23 21 21 21 20 19 18 17 17 17 19 19 19 19 19 19 19 19 19 20 20 19 18 18 18 18 18 18 18 19 19 19
31 30 32 34 34 32 31 32 30 30 28 28 28 26 25 24 24 23 23 21 20 19 20 19 18 18 18 18 18 19 19 19 19 19 19 20 19 19 19 18 19 19 19 19 19 19 19 19 19
33 27 34 36 35 33 32 32 30 30 29 28 28 26 24 23 24 24 24 22 22 20 19 20 19 20 19 20 18 17 17 18 18 18 18 19 20 19 19 19 19 19 19 19 19 19 19 19 19
34 28 34 35 34 33 32 32 31 31 30 29 28 26 24 24 24 24 24 24 23 21 21 22 21 20 20 20 19 19 19 20 19 18 18 19 19 19 20 19 19 19 19 19 19 19 19 19 20
33 33 35 34 33 33 33 32 31 31 31 29 28 26 24 24 24 24 24 23 23 22 22 22 21 20 20 20 20 21 21 21 20 19 18 18 19 19 19 19 19 19 20 19 19 19 19 19 19
35 35 34 34 33 34 33 32 32 31 30 29 28 26 25 25 25 25 24 24 23 22 22 22 20 19 19 19 20 21 21 21 21 20 19 19 20 19 19 19 19 19 19 19 19 19 19 19 19
35 35 35 34 34 33 33 32 31 31 30 29 27 26 26 26 25 25 25 24 23 22 22 21 20 19 19 19 19 19 20 21 20 21 20 19 19 19 19 18 19 18 19 19 19 18 18 18 19
35 34 34 34 34 34 33 32 32 31 30 29 27 27 27 26 26 25 25 24 23 22 22 21 20 20 19 18 18 18 20 20 21 20 20 19 18 18 18 18 19 19 19 19 18 18 18 19 19
34 34 34 35 35 34 33 32 32 30 30 29 28 27 27 26 26 25 25 24 24 23 22 21 21 21 19 19 19 19 20 20 20 21 19 19 19 18 18 18 18 19 19 19 18 18 19 20 19
34 33 34 33 35 34 33 24 33 31 30 30 29 28 27 27 26 26 25 24 24 23 22 21 21 21 20 19 19 19 20 20 20 20 20 19 19 18 18 18 19 18 19 18 18 18 19 19 19
33 34 35 34 34 34 33 33 33 31 31 31 30 29 28 27 27 26 25 25 24 23 22 21 21 21 20 20 19 19 19 19 19 20 20 19 19 18 18 19 18 18 18 18 17 18 17 18 19
35 35 34 36 35 34 33 34 33 32 31 31 30 29 29 28 27 26 25 25 24 23 22 21 20 20 20 19 20 20 20 20 19 20 19 19 19 18 18 19 19 18 18 18 17 17 18 18 18
35 35 35 36 35 35 34 34 35 34 32 32 32 30 30 29 28 27 26 25 24 23 22 21 20 20 19 20 20 21 21 22 21 21 21 19 19 19 19 18 19 18 18 18 17 16 17 19 18
34 35 36 36 35 35 34 33 34 35 33 32 31 31 30 30 29 28 26 25 25 24 23 21 20 20 19 20 20 20 20 21 21 21 21 21 19 19 18 18 18 18 19 19 17 17 17 18 18
33 35 36 36 32 33 34 33 34 35 34 34 32 32 32 30 29 29 27 26 25 25 23 22 21 20 20 20 21 21 21 22 22 22 22 21 19 19 19 18 18 17 18 18 18 17 17 17 18
34 36 35 36 34 33 34 33 34 35 34 34 34 33 32 32 30 29 29 27 26 25 24 23 21 20 20 20 20 21 21 22 22 22 21 20 19 18 19 18 18 17 17 17 18 16 16 16 17
35 35 35 35 35 32 34 32 35 32 35 35 35 34 33 32 31 30 29 29 27 26 25 24 22 21 21 21 21 21 21 21 22 22 21 20 20 19 18 18 18 17 17 16 16 15 15 16 16
34 34 32 32 32 32 33 33 30 37 36 36 36 35 34 33 32 31 30 29 28 26 25 24 23 22 21 21 20 21 21 20 20 20 20 21 21 20 19 18 18 17 18 16 15 16 15 15 15
33 34 32 30 31 33 35 33 35 37 37 36 36 36 35 33 32 31 30 29 28 27 25 25 24 22 23 22 21 21 21 20 20 20 21 21 21 21 20 19 19 17 16 16 16 16 15 15 15
33 33 35 34 34 34 35 35 36 36 37 36 36 36 36 35 33 32 31 30 29 27 26 25 24 23 23 21 22 22 22 21 21 21 21 20 21 21 19 19 18 19 16 16 15 17 15 15 15
33 35 33 35 31 32 34 34 34 35 35 36 36 36 36 35 35 33 32 30 29 28 26 25 24 23 23 23 23 23 22 22 21 20 20 20 20 20 19 19 21 19 21 21 19 16 15 15 15
32 34 34 34 34 32 32 34 37 36 36 35 36 36 36 36 35 34 33 31 30 28 27 26 24 23 23 23 23 23 22 21 21 20 20 20 19 19 20 21 21 20 19 19 18 20 17 15 15
33 33 33 34 31 33 34 34 38 37 37 36 37 37 37 36 36 35 34 33 31 29 28 27 25 24 23 22 24 24 23 23 22 22 20 20 19 21 21 22 21 20 19 19 19 18 16 15 14

GFSSGP_850_temp_030.txt.gz
Temp
20 20 18 18 19 21 24 25 26 27 27 27 24 21 21 19 23 19 18 17 16 17 17 17 17 18 18 19 18 19 19 19 19 19 19 19 19 19 19 19 19 19 19 18 18 18 18 18 18
21 19 18 18 20 21 27 27 24 27 28 27 26 25 24 22 20 18 17 17 17 17 16 17 18 18 18 19 19 19 19 19 19 19 19 19 19 19 19 19 19 19 19 19 18 18 18 18 18
20 21 17 18 26 22 27 28 27 29 28 26 24 26 24 21 21 20 18 18 18 18 17 18 18 18 18 19 19 19 19 19 19 19 19 19 19 19 19 19 19 19 19 19 19 18 19 18 18
21 21 22 23 29 29 28 27 30 30 29 28 27 25 24 23 21 19 19 19 18 18 18 19 18 18 18 19 19 19 19 19 19 19 19 19 19 19 19 19 19 19 19 19 19 18 18 19 18
21 25 27 32 30 31 32 29 30 30 27 27 26 24 23 23 21 20 19 19 19 18 19 19 18 18 19 19 19 19 19 19 19 19 19 19 19 19 19 19 19 19 19 19 18 18 18 19 19
25 27 28 32 32 32 32 31 30 30 29 27 26 23 23 21 21 20 20 20 20 18 17 18 19 19 19 19 19 19 19 19 19 19 19 19 19 19 19 19 19 19 18 19 19 19 19 19 19
28 30 30 34 32 32 33 32 30 31 30 28 26 24 24 22 22 21 21 21 21 19 18 19 19 19 19 19 19 19 19 19 19 20 20 19 19 19 19 19 19 19 19 19 19 19 19 19 20
30 27 30 33 33 32 33 31 31 31 30 28 27 26 24 24 23 22 21 22 22 19 18 18 18 19 19 19 19 19 20 20 20 20 20 20 20 19 19 19 19 19 19 19 19 20 20 20 20
30 25 31 32 33 32 33 32 31 30 30 26 28 27 25 25 23 23 23 22 21 20 19 18 18 18 18 19 20 20 20 20 20 20 20 20 19 19 18 19 19 19 19 19 20 20 19 19 19
19 19 27 30 34 33 33 33 31 31 30 30 28 27 26 25 24 23 21 21 21 20 20 19 19 18 18 18 20 20 20 20 20 20 19 20 18 19 20 20 19 19 18 18 18 19 18 18 19
20 22 27 28 34 34 33 33 32 31 30 30 28 27 26 26 25 23 23 22 22 21 20 20 20 20 20 19 20 20 20 19 20 19 19 19 18 20 19 18 18 19 19 20 18 19 19 18 18
22 19 24 34 35 34 34 33 32 31 31 30 28 26 26 26 26 26 24 24 22 21 21 22 20 21 20 20 21 20 20 20 20 20 20 19 20 20 20 19 20 19 19 19 19 18 19 19 20
27 26 29 35 34 35 33 33 32 32 31 30 28 26 26 26 26 26 26 25 23 22 22 22 21 21 20 20 21 21 21 21 21 21 21 20 19 19 20 20 20 19 20 20 19 19 19 20 19
35 34 35 35 35 35 34 33 32 32 31 30 28 26 26 26 26 26 26 25 24 23 23 22 21 20 21 20 20 20 21 20 21 21 21 20 20 19 19 19 19 19 19 19 19 20 19 19 19
35 35 36 35 35 35 35 32 32 31 31 30 28 27 27 27 26 26 26 25 24 23 23 22 21 20 20 20 20 20 20 21 20 21 21 20 20 19 19 19 20 19 19 19 19 19 19 20 19
35 35 34 36 36 35 34 27 33 31 31 30 29 28 27 27 27 26 26 25 24 23 23 22 22 21 20 19 19 19 20 20 21 21 20 20 19 19 19 19 18 19 19 19 18 19 18 19 19
34 33 34 33 36 35 33 24 28 29 32 30 29 29 28 27 27 27 26 25 24 23 23 22 22 21 20 20 19 19 19 20 20 21 20 20 20 19 19 19 19 19 19 19 18 19 18 19 19
32 33 34 33 35 35 27 21 25 27 32 31 30 29 29 28 28 27 26 26 25 24 23 22 22 22 21 20 20 19 20 20 20 20 20 20 19 19 19 19 19 19 19 18 18 18 18 18 18
34 35 34 34 27 35 32 26 22 26 32 32 31 30 29 29 28 27 26 26 25 24 23 22 22 21 21 20 20 20 20 20 20 21 20 20 20 19 19 19 20 19 18 19 18 18 18 19 18
34 34 35 34 30 32 34 28 26 28 33 33 32 31 30 29 29 28 27 26 25 24 23 22 21 21 21 20 20 20 21 21 21 21 21 20 20 19 19 19 18 19 19 19 17 18 18 18 18
33 34 35 34 34 35 35 34 34 34 33 33 33 32 31 30 29 28 27 26 26 25 24 23 22 21 21 20 20 20 21 21 20 21 20 20 20 20 19 19 19 19 19 18 18 17 17 18 18
32 35 35 35 34 32 35 32 34 35 34 33 33 33 32 31 30 29 28 26 26 25 24 23 22 21 20 21 20 21 21 21 22 22 22 22 20 19 19 19 18 18 19 18 18 18 18 18 18
34 35 35 35 34 34 32 31 33 34 34 34 34 33 33 32 31 30 29 27 26 25 24 23 22 22 21 21 21 21 21 21 22 22 22 21 20 20 19 18 18 18 18 18 18 17 18 17 18
35 35 35 35 35 32 32 30 31 33 34 33 35 34 33 33 32 31 30 29 27 26 25 23 23 22 22 21 21 21 20 21 22 22 22 21 21 20 19 19 18 18 18 18 18 18 18 17 17
34 34 32 32 33 32 35 31 31 34 34 33 32 33 34 33 33 31 31 30 27 26 26 24 22 23 23 21 21 21 21 21 22 21 21 21 20 20 20 19 18 18 19 18 19 19 16 18 17
33 34 33 29 32 33 35 34 33 34 33 31 29 32 35 34 33 32 31 30 29 27 26 25 24 23 23 23 21 22 22 21 21 22 21 21 21 21 20 20 19 19 19 18 19 21 19 18 17
33 32 35 33 34 33 35 36 37 37 34 32 32 35 34 33 34 33 32 31 30 28 27 26 25 24 23 23 23 22 23 22 21 21 21 21 21 22 21 21 20 20 20 20 18 18 18 18 17
34 35 32 33 30 31 34 34 35 34 32 34 33 35 35 35 34 33 33 31 30 29 27 26 25 25 24 23 23 23 23 23 22 21 21 21 21 21 21 21 21 21 20 19 18 18 17 17 17
32 32 33 34 33 32 32 34 37 35 35 35 35 36 36 36 36 34 33 32 31 29 28 26 25 25 24 23 24 23 23 23 23 21 21 21 21 21 21 21 21 21 20 19 18 18 18 17 17
34 33 32 31 31 33 33 34 38 36 36 36 36 36 36 36 36 36 34 33 31 30 28 26 25 24 24 23 23 24 23 23 22 23 21 21 21 21 20 20 21 21 20 20 19 18 17 16 17

GFSSGP_850_temp_033.txt.gz
Temp
21 19 18 18 19 19 22 24 23 24 24 22 23 23 20 19 21 18 16 17 17 17 17 17 17 18 18 18 19 19 19 19 19 19 20 20 19 19 19 19 19 19 19 19 18 18 18 18 18
21 20 18 18 20 20 24 24 24 24 23 23 23 21 20 19 18 17 16 17 17 17 17 17 18 18 18 19 19 19 19 19 19 19 20 19 19 19 19 19 19 19 19 19 18 18 18 18 18
21 19 19 18 20 20 24 25 27 24 25 24 24 23 20 18 18 17 17 17 17 17 18 18 18 18 19 19 19 19 19 19 19 20 20 19 19 19 19 19 19 18 18 18 18 18 19 18 18
20 19 19 19 21 23 26 26 27 26 25 24 24 22 20 19 18 18 18 17 18 18 18 18 18 18 19 19 19 19 19 19 19 20 20 19 19 19 19 19 19 19 18 18 18 18 18 18 18
20 20 20 22 25 27 26 29 28 26 24 24 23 22 20 20 18 18 18 18 18 18 19 19 19 19 18 19 19 19 19 19 20 20 19 19 19 19 19 19 19 19 18 18 18 18 18 19 18
19 19 21 25 29 29 29 27 28 26 24 23 22 21 20 19 19 19 19 18 19 19 19 19 18 18 18 19 19 19 20 20 20 20 20 20 19 19 19 19 19 19 19 19 19 19 19 19 19
21 20 23 26 29 29 30 28 28 26 24 24 22 21 20 19 20 19 20 19 19 19 19 19 19 19 19 19 19 20 20 20 20 20 20 20 19 19 19 19 19 19 19 19 19 19 19 18 18
18 17 21 28 29 27 30 29 29 27 25 23 23 21 20 20 21 20 19 19 20 20 19 19 19 19 20 20 20 20 20 20 20 20 20 20 19 19 19 19 19 19 19 19 19 19 19 18 19
19 17 19 26 29 29 30 29 29 27 25 24 25 22 22 21 22 21 20 19 19 20 20 19 19 20 20 20 20 20 20 20 20 20 20 19 19 19 19 18 18 19 19 19 19 19 19 19 19
18 17 22 29 30 30 29 29 29 27 25 24 24 23 21 22 22 21 20 20 20 19 20 19 19 20 20 20 20 20 20 20 20 20 20 19 19 19 18 17 18 18 19 19 19 19 19 19 19
19 21 26 27 29 30 31 30 30 27 26 26 24 24 22 22 22 22 21 20 20 20 19 20 20 20 20 20 20 20 21 20 20 20 20 19 19 19 18 19 19 19 18 19 20 19 19 19 19
23 23 27 26 30 29 30 31 30 30 28 26 25 24 23 23 23 23 22 21 21 20 20 20 20 20 20 20 20 21 21 21 21 20 20 20 19 19 19 19 19 19 19 19 19 19 20 19 19
25 25 29 30 29 28 32 31 30 30 28 26 26 26 24 24 24 23 23 22 22 21 21 20 21 20 20 20 20 21 20 21 20 20 20 20 20 20 20 19 19 19 19 19 19 19 19 19 19
28 28 32 32 29 31 32 31 31 29 27 26 26 26 26 25 24 23 22 22 22 22 21 21 21 21 21 20 20 20 20 21 20 20 20 20 20 20 20 20 20 19 19 19 18 18 19 19 19
32 27 31 32 32 31 31 29 29 29 28 26 26 25 26 26 26 25 23 23 23 23 22 21 21 21 21 20 20 21 21 20 21 20 20 20 20 20 20 19 19 19 19 19 19 19 19 20 19
30 29 29 32 32 32 30 26 30 30 27 26 26 25 25 26 26 26 25 24 23 23 22 22 21 21 21 21 20 21 20 20 21 21 20 20 20 20 20 19 19 19 19 19 19 19 19 19 19
27 27 28 31 34 33 28 25 29 30 29 27 26 26 26 26 26 26 25 25 24 23 23 22 22 22 21 21 21 20 21 21 20 20 20 20 20 20 20 19 19 19 19 19 19 18 18 19 19
26 27 29 30 31 29 26 25 29 30 28 28 27 27 27 27 26 26 26 25 24 24 23 22 22 21 21 21 21 20 20 20 20 20 20 21 20 20 19 19 19 19 19 19 18 18 18 19 18
29 29 29 32 30 26 26 25 27 29 28 28 28 27 27 27 27 26 26 25 25 24 23 23 22 21 21 21 20 20 20 20 20 20 20 20 20 20 19 19 19 19 18 19 20 19 18 18 18
29 29 29 29 30 29 26 27 26 27 27 27 28 28 28 27 27 27 26 26 25 24 23 23 22 22 21 21 21 20 20 20 21 21 20 20 20 20 20 19 19 19 19 18 19 18 19 18 18
29 28 29 28 30 28 29 26 24 28 29 28 28 28 28 28 28 27 27 26 25 25 24 23 23 22 21 21 20 20 20 20 21 21 20 20 21 20 20 19 20 19 19 18 18 18 19 18 18
28 31 31 29 28 26 29 25 24 26 28 28 28 29 29 28 28 28 27 26 26 25 25 24 23 22 21 21 20 20 20 19 20 21 21 21 21 20 20 19 19 19 19 18 18 19 20 18 18
29 31 31 31 27 28 29 26 25 26 27 27 30 30 29 29 29 28 28 27 26 26 25 24 24 23 22 21 21 21 20 20 20 21 22 21 20 19 20 19 19 19 18 18 18 19 20 19 18
32 30 30 30 29 24 29 26 26 26 29 30 31 31 30 30 29 29 28 27 27 26 25 25 24 23 23 22 21 21 20 21 21 22 21 21 21 21 20 19 19 18 18 18 19 19 19 20 19
30 28 27 26 27 25 26 27 28 29 30 31 31 32 32 30 30 29 28 27 27 26 25 25 24 24 23 23 22 21 20 20 21 21 21 21 21 21 20 19 18 19 19 19 20 20 20 19 19
29 29 27 24 26 27 28 26 28 31 32 32 32 32 32 32 30 30 30 28 27 26 26 25 24 24 24 23 23 22 21 21 21 21 21 21 21 21 21 20 20 19 19 20 20 20 19 19 18
28 28 29 26 27 25 28 29 29 32 29 28 30 32 33 32 32 30 30 30 28 27 26 25 25 24 24 24 23 23 22 21 21 22 21 21 21 21 21 20 21 21 20 20 20 20 19 19 18
30 30 28 28 26 26 28 28 27 29 27 28 29 30 30 32 32 29 30 30 30 29 27 26 26 25 25 24 24 23 23 22 22 22 22 21 21 21 21 21 21 21 20 21 20 20 19 18 18
27 29 27 27 28 26 25 28 30 28 28 28 29 31 32 33 32 30 31 31 30 30 28 27 26 25 24 24 24 24 23 23 22 22 22 22 21 21 21 21 21 21 21 21 21 19 19 18 17
30 28 26 26 24 25 27 28 30 32 30 30 30 30 31 32 32 31 32 31 30 30 28 27 27 26 26 25 25 24 24 23 23 22 22 22 22 21 20 20 21 21 21 21 21 20 19 18 18

GFSSGP_850_temp_036.txt.gz
Temp
20 19 18 18 18 18 21 22 25 23 22 22 22 21 19 19 20 18 16 17 17 16 16 17 17 18 19 19 19 19 19 19 19 19 20 19 19 19 19 19 19 19 19 18 18 18 18 18 17
20 19 19 18 19 20 22 24 23 23 22 21 21 20 20 18 16 16 16 16 17 17 17 17 17 18 19 19 19 19 19 19 19 19 20 20 19 19 19 19 19 19 18 18 18 18 18 18 17
20 20 19 18 19 20 22 24 23 23 23 23 21 20 19 17 17 17 17 17 17 17 17 17 18 18 19 19 19 19 19 19 19 19 19 20 19 19 19 19 18 18 18 18 18 18 18 18 18
20 19 18 19 20 22 25 24 23 24 24 22 21 20 18 18 17 18 17 17 17 17 17 18 18 18 19 19 19 19 19 19 19 20 20 19 19 19 19 19 19 18 18 18 18 18 18 18 18
19 18 19 20 23 25 25 26 25 24 23 21 21 19 19 18 18 18 18 18 18 18 18 18 18 18 19 19 19 19 19 19 20 20 20 19 19 19 19 19 18 19 18 18 18 18 18 18 18
19 19 19 22 24 25 25 25 25 24 22 20 19 19 18 18 18 18 18 18 18 18 18 18 18 19 19 19 19 19 19 20 20 20 19 20 19 19 19 19 19 18 18 18 18 18 18 18 18
19 16 19 19 22 25 25 25 24 23 22 22 21 19 18 18 18 18 18 18 19 19 19 19 18 19 19 19 19 19 20 20 20 20 20 20 19 19 19 19 18 18 18 19 19 18 19 19 18
16 17 18 21 25 26 26 25 24 23 23 21 21 19 18 19 19 18 19 18 19 19 19 19 19 18 19 19 19 20 20 20 20 20 20 19 19 19 18 18 19 18 19 19 19 18 19 19 18
18 18 19 23 27 27 27 25 24 24 22 22 22 20 21 20 19 18 18 18 19 19 19 19 19 19 19 20 20 20 20 20 20 20 19 19 19 19 19 19 18 18 18 19 19 19 19 19 18
19 18 22 23 26 27 28 25 25 23 22 23 21 21 20 19 19 18 18 18 19 19 19 19 20 20 20 20 20 20 20 20 20 20 19 19 19 19 19 19 19 19 19 19 19 19 19 19 19
20 22 25 27 28 29 28 26 25 23 23 22 21 20 20 19 19 19 19 19 20 20 20 20 20 20 20 20 20 20 21 21 20 20 20 19 19 19 19 19 19 19 19 19 19 19 19 19 18
20 23 26 27 27 29 28 26 25 24 24 24 23 22 21 20 19 19 19 19 19 20 20 20 20 20 20 20 21 21 21 20 20 20 20 20 19 19 19 19 19 19 19 19 19 19 19 19 19
23 25 27 29 28 30 30 28 26 26 24 23 23 22 22 21 21 21 21 20 20 20 21 21 20 21 21 20 20 20 20 20 20 20 20 20 19 19 19 19 19 19 19 19 19 19 18 19 19
26 26 28 28 28 31 29 29 28 26 24 23 22 21 22 22 22 21 20 20 20 21 22 20 20 21 21 21 20 20 20 21 20 20 20 20 20 20 19 19 18 19 19 19 19 19 19 19 19
28 27 27 29 29 28 30 27 26 25 24 23 22 22 22 22 22 21 22 21 22 22 22 21 21 21 21 20 20 20 20 20 20 20 20 19 20 20 20 20 19 19 19 19 19 19 19 19 19
27 26 24 29 29 29 29 25 26 25 25 24 22 23 23 23 23 23 23 23 22 22 21 21 21 21 21 20 20 20 19 20 20 20 20 20 20 20 19 19 19 19 19 19 19 19 19 19 19
23 24 24 26 30 29 27 24 26 26 25 25 25 25 25 24 24 23 23 23 22 22 22 21 21 20 20 20 20 20 20 20 20 20 20 20 20 19 19 20 19 19 19 19 19 19 19 19 19
23 25 26 28 29 28 27 25 26 26 25 25 25 25 25 25 24 24 24 23 23 23 22 22 21 21 21 20 20 20 20 20 20 20 20 20 20 20 19 20 19 19 19 19 19 18 18 18 19
25 25 24 27 29 28 26 26 26 26 25 25 24 24 24 25 25 25 25 24 23 23 23 23 22 21 21 21 21 21 20 20 20 20 20 20 19 20 19 19 19 19 19 19 19 18 18 18 18
25 25 25 28 29 27 25 26 28 25 26 25 25 25 25 25 25 25 25 25 24 23 23 23 22 22 21 21 21 20 21 21 21 20 20 20 20 20 20 19 19 19 19 19 19 18 19 18 18
25 25 25 27 28 27 26 25 26 26 26 26 26 25 25 25 25 26 26 25 25 24 24 23 23 22 22 21 21 20 20 20 20 20 20 20 20 20 20 19 19 19 19 19 19 18 18 18 18
23 27 28 28 26 26 27 25 23 26 24 25 26 26 26 25 26 26 26 25 25 25 24 24 23 23 22 22 21 20 20 21 21 21 21 21 20 20 20 20 19 19 19 19 19 18 19 18 18
25 27 27 27 25 25 26 23 23 24 25 25 25 26 26 26 26 26 27 26 26 25 25 25 24 23 23 22 21 21 20 21 21 21 21 21 20 20 19 20 19 19 19 19 19 19 19 19 18
28 27 26 26 22 24 25 25 22 24 24 26 27 27 27 27 26 27 27 27 26 26 25 25 24 24 23 23 22 21 21 20 20 20 21 21 21 20 19 19 19 19 19 19 19 19 19 19 18
26 23 22 23 22 23 23 24 25 27 26 27 28 27 28 27 27 27 26 26 26 25 25 25 24 24 23 23 23 22 21 21 20 20 20 21 21 21 20 20 19 20 19 19 20 20 19 20 19
23 25 23 21 21 22 23 24 26 27 30 28 29 30 29 28 28 27 27 27 27 26 26 25 25 24 24 23 23 22 22 21 21 20 21 21 21 21 21 20 20 20 20 20 20 20 20 20 19
25 24 25 22 22 22 23 24 26 28 27 29 29 30 29 29 28 28 28 28 28 27 26 26 25 25 25 24 24 23 22 22 21 21 21 21 21 21 21 21 21 21 21 21 21 20 20 20 19
27 24 25 19 23 23 23 25 24 26 27 27 29 30 30 29 29 28 28 29 27 28 28 27 26 26 25 25 24 23 23 22 22 21 21 20 20 20 20 21 21 21 21 21 21 21 21 20 19
25 25 23 24 23 25 23 26 25 26 26 26 29 30 30 29 30 29 29 29 28 27 26 27 27 26 25 25 25 24 23 23 22 22 21 21 21 20 20 20 21 21 21 20 21 21 21 20 20
27 27 24 26 22 20 27 27 29 27 26 26 28 30 30 30 30 31 30 31 28 29 27 26 27 27 26 25 25 24 24 23 23 22 22 22 21 21 20 20 20 21 21 20 20 20 21 20 20

GFSSGP_850_temp_042.txt.gz
Temp
18 18 17 17 18 18 20 22 22 22 21 20 21 20 18 17 19 18 16 16 17 16 16 17 17 18 19 19 19 19 20 19 19 19 19 19 19 19 19 19 19 18 18 18 18 18 17 17 17
19 18 18 18 19 20 21 20 21 20 19 20 19 19 18 17 16 16 16 16 17 17 17 17 17 18 18 19 19 19 19 19 19 19 19 19 19 19 19 18 18 18 18 18 17 17 17 17 17
18 17 18 18 19 20 20 22 20 20 21 21 19 18 18 16 16 16 16 17 17 17 17 17 18 18 19 19 19 19 19 20 19 19 19 19 19 19 18 18 17 18 18 18 17 17 17 17 17
19 18 18 19 20 21 21 22 21 21 21 20 19 18 17 16 16 17 17 17 17 17 17 17 18 19 19 19 19 19 19 19 19 19 19 19 19 18 18 17 17 17 17 17 17 17 17 17 17
18 19 18 19 21 22 22 22 22 21 20 20 19 17 16 16 17 17 17 17 17 17 17 17 18 19 19 19 19 19 19 20 20 20 19 19 19 18 18 18 18 17 18 17 17 17 17 17 18
18 18 19 19 21 22 23 23 22 21 19 18 18 17 16 17 17 17 17 17 17 17 17 17 18 19 19 19 19 19 20 20 20 19 19 19 18 18 18 18 18 18 17 18 18 18 18 18 18
18 18 20 20 21 21 23 23 21 20 20 19 19 17 16 16 17 17 17 17 17 17 18 18 18 19 19 19 19 19 20 20 19 19 19 18 18 18 18 18 18 18 18 18 18 18 18 18 18
19 18 19 19 21 21 23 23 22 21 21 19 20 16 16 17 17 17 17 17 17 17 18 18 18 19 19 19 19 19 20 19 19 19 18 18 18 18 18 18 18 18 18 18 18 18 18 19 18
18 18 18 21 21 23 23 22 22 22 20 21 20 19 19 17 17 17 17 17 17 18 18 18 19 19 19 19 19 19 19 19 19 19 18 18 18 18 18 18 18 18 18 18 18 18 18 19 18
18 17 20 22 23 22 24 23 22 21 21 20 19 19 18 17 17 17 17 17 17 18 18 19 19 19 19 19 19 20 20 20 19 19 19 18 19 19 18 18 18 18 18 18 18 18 18 18 18
18 19 22 24 25 25 24 23 23 21 20 20 18 19 17 17 17 18 18 19 19 19 18 19 19 19 19 19 19 20 20 20 19 19 19 19 19 19 19 19 19 19 19 18 18 18 18 18 18
19 20 21 24 26 24 23 23 23 22 23 23 22 21 18 18 18 18 18 19 19 19 19 19 19 19 19 19 20 20 20 20 20 19 19 19 19 19 19 19 19 19 19 19 18 18 18 18 18
19 21 23 24 26 25 24 24 23 22 23 23 20 19 19 18 18 19 20 20 20 19 19 19 19 19 20 20 20 20 20 20 20 20 19 19 19 19 19 19 19 19 19 19 18 18 18 18 18
23 22 23 25 26 26 24 24 24 23 22 21 19 18 18 19 19 19 19 20 20 20 20 20 20 20 20 20 20 20 20 20 20 19 19 19 19 19 18 18 19 19 19 19 18 18 18 18 18
25 22 23 24 25 25 25 23 23 23 22 20 19 18 18 19 19 20 20 20 20 20 20 20 20 20 20 20 21 20 20 20 20 20 19 20 19 19 19 18 18 18 18 19 18 18 18 18 18
23 22 22 24 25 25 25 22 24 23 21 20 19 18 19 18 18 20 21 21 20 20 20 20 20 20 20 20 20 20 20 20 20 20 20 19 19 19 19 19 18 18 18 19 18 18 18 19 19
19 21 21 24 25 26 24 23 23 23 22 20 20 19 19 19 19 20 21 21 21 20 20 21 21 21 21 21 20 20 20 19 20 20 20 20 19 19 19 18 18 19 19 19 19 18 18 18 18
20 21 22 24 27 24 23 23 23 22 22 21 20 20 19 19 21 21 21 21 21 21 21 21 21 21 21 21 20 20 19 19 19 20 20 20 20 19 20 19 18 19 19 19 19 18 18 18 18
22 23 23 24 25 24 23 23 21 22 22 21 21 20 20 20 23 22 21 21 22 21 21 21 21 21 21 21 20 19 19 19 19 19 20 20 20 20 20 19 19 19 19 19 19 18 18 18 17
22 23 22 23 24 25 24 23 21 22 22 22 21 21 21 20 20 21 21 21 21 23 23 22 21 21 21 21 21 20 20 20 19 19 19 19 20 20 20 20 19 19 18 19 19 18 18 18 18
20 21 22 23 24 24 23 22 21 22 23 22 22 21 21 21 21 21 21 22 22 22 23 23 22 22 21 21 21 20 20 19 19 19 19 19 19 20 20 20 19 19 19 18 18 18 18 18 18
18 21 23 23 24 22 23 20 20 22 22 22 22 22 22 22 22 22 21 22 23 23 23 23 23 22 22 21 21 20 20 20 20 19 19 19 19 20 20 19 19 19 19 18 18 18 18 18 18
21 23 23 24 21 22 23 20 21 21 21 22 23 23 23 22 23 23 23 23 24 24 24 23 23 22 22 22 21 21 20 21 20 20 20 20 20 20 20 19 19 19 19 19 18 18 18 18 18
22 22 19 18 18 19 21 20 20 20 22 23 23 23 23 23 23 23 25 25 24 24 23 23 23 23 23 22 22 21 21 21 20 20 20 20 20 20 20 19 19 19 19 19 19 18 18 18 18
22 19 17 18 17 21 20 20 25 22 24 24 24 24 24 23 23 23 23 24 24 24 24 24 24 24 23 23 22 22 22 21 21 21 20 20 20 20 20 20 19 19 19 19 18 19 18 18 18
20 19 15 17 16 22 18 20 22 25 25 26 26 25 25 24 24 23 24 25 25 25 25 25 25 24 24 24 23 23 22 22 22 21 21 21 21 20 20 20 20 20 19 19 19 19 19 19 19
19 19 19 17 18 17 18 20 24 24 24 24 26 26 26 25 25 24 24 25 26 26 26 26 25 26 24 24 24 23 23 22 22 22 21 21 21 21 20 20 21 20 20 19 19 19 20 20 19
20 20 20 15 19 19 18 20 21 22 23 23 23 24 26 27 26 25 25 24 25 26 27 26 26 26 26 25 25 24 24 23 23 22 22 21 21 21 20 20 20 20 20 20 20 20 19 20 20
19 19 19 19 15 19 17 19 19 22 23 26 27 27 27 27 27 28 27 26 26 26 26 26 26 26 26 26 25 25 24 24 23 23 23 22 21 21 21 21 20 20 20 20 20 20 20 20 20
24 22 17 20 18 16 17 20 22 23 24 22 25 28 28 29 29 29 28 27 25 26 26 26 26 25 26 26 26 26 25 25 24 24 23 23 22 22 21 21 20 20 20 21 21 22 21 20 20

GFSSGP_850_temp_045.txt.gz
Temp
19 18 17 17 19 19 23 23 24 23 23 21 22 22 22 18 20 19 16 17 17 17 17 17 17 18 18 19 19 19 19 19 19 19 19 19 19 19 18 18 18 18 17 17 17 17 17 18 18
19 18 17 17 21 21 23 23 23 23 21 21 20 20 20 19 16 16 16 16 17 17 17 17 18 19 19 19 19 19 19 20 19 19 19 19 19 18 18 18 18 18 18 18 17 17 18 17 17
18 18 17 19 22 22 23 23 23 22 21 21 20 19 19 17 15 16 16 16 17 17 17 18 18 19 19 19 19 19 20 19 19 19 19 19 18 18 18 18 17 17 17 17 18 18 18 17 17
18 17 17 22 23 24 24 23 23 22 21 20 20 20 17 16 16 16 16 16 17 17 17 18 18 19 19 19 19 20 19 19 19 19 19 18 18 18 18 17 17 17 17 18 18 18 18 17 17
17 18 21 23 24 24 25 24 23 23 21 20 20 18 16 16 16 16 16 15 17 17 17 18 18 19 19 19 20 19 20 19 19 19 19 18 18 18 18 17 17 17 18 18 18 18 18 17 17
19 18 22 24 24 24 25 23 23 23 21 19 19 19 17 16 16 15 15 15 17 17 16 17 18 19 19 20 20 19 19 19 19 19 19 18 18 18 18 18 18 18 18 18 18 18 18 17 17
20 21 22 23 23 24 25 23 24 23 21 20 19 19 16 15 16 16 16 15 16 16 16 16 18 19 19 19 19 19 19 19 19 19 19 18 18 18 18 18 18 18 18 18 18 18 18 17 17
19 21 23 23 24 25 25 24 22 23 22 20 19 19 17 15 15 16 16 16 16 16 18 18 19 19 19 19 19 19 19 19 19 19 18 18 18 18 18 18 18 18 18 18 18 18 18 18 17
18 22 23 24 24 26 25 24 23 22 21 21 20 19 18 16 15 16 16 15 15 16 17 18 19 19 19 19 19 19 19 19 19 18 18 18 18 18 18 18 18 18 18 18 18 18 18 18 18
20 22 25 25 25 26 25 25 23 22 22 21 19 18 16 16 15 16 15 15 16 16 17 18 19 19 19 19 19 19 19 19 19 19 18 18 18 18 18 18 18 18 18 18 18 18 18 18 18
20 23 25 26 26 26 26 25 24 23 23 22 19 17 16 16 16 16 16 16 16 17 17 19 19 19 19 19 19 19 19 19 19 19 19 19 19 18 19 19 19 19 19 18 18 18 18 18 18
21 22 24 25 26 26 26 25 25 24 24 23 20 18 17 17 17 17 17 16 16 18 19 19 20 20 19 19 19 19 20 20 20 19 19 19 19 19 19 19 19 19 19 18 18 18 18 18 18
21 23 24 24 25 26 25 24 26 24 22 21 19 18 17 17 17 17 17 18 19 19 19 20 20 20 20 19 19 20 20 20 20 19 19 19 19 19 19 19 19 19 19 18 18 18 18 18 18
24 23 25 25 26 26 26 26 25 24 21 20 19 19 18 18 18 17 17 18 19 20 20 20 20 20 20 20 20 20 20 20 20 20 19 19 19 19 18 19 19 19 19 18 18 18 18 18 18
25 25 26 26 27 27 26 25 25 23 21 20 19 19 18 18 18 17 19 20 20 20 20 20 20 20 20 20 20 20 20 20 20 19 19 19 19 19 19 19 19 18 18 18 18 18 17 18 18
25 25 27 27 27 27 27 27 27 23 22 21 20 19 19 18 18 18 18 20 20 20 20 20 20 20 20 20 20 20 20 20 20 20 19 20 19 19 19 19 19 18 18 18 18 18 18 18 19
24 27 26 28 27 27 27 28 28 24 23 22 21 20 19 19 18 18 18 19 20 21 21 21 20 21 21 21 20 20 20 20 20 20 20 20 19 19 19 19 19 19 18 18 18 18 18 18 18
24 25 26 27 29 28 27 28 27 24 24 23 22 21 20 20 20 19 18 18 20 21 21 21 20 21 21 21 21 20 20 20 19 19 20 20 20 20 19 19 19 18 19 18 19 18 18 18 18
25 25 27 28 29 28 28 29 28 25 25 24 23 22 21 21 21 20 19 18 18 20 21 21 21 21 21 21 21 20 20 20 20 20 20 20 20 20 20 20 19 19 18 18 18 18 18 18 18
24 25 26 27 27 27 29 28 28 26 25 24 24 22 22 22 21 20 19 19 19 21 21 21 21 21 21 21 21 21 20 20 20 20 20 20 19 20 20 20 20 19 19 18 18 18 18 18 18
23 24 26 27 27 27 27 28 26 26 25 24 24 23 22 22 22 21 20 21 20 21 21 21 22 22 21 21 21 21 21 20 20 20 19 19 19 19 20 20 20 19 19 18 18 18 18 17 18
24 25 25 25 25 26 27 28 25 27 25 25 24 24 23 23 22 22 21 20 22 23 22 22 22 22 22 21 21 21 21 21 20 20 20 19 19 19 19 20 20 19 19 19 18 18 18 18 18
24 25 25 26 26 26 27 27 29 26 26 26 25 24 24 24 23 22 22 23 23 23 23 22 22 22 22 21 21 21 21 21 21 20 20 20 19 19 19 19 20 19 19 19 19 18 18 18 18
25 25 25 24 26 25 27 27 29 27 27 27 26 25 24 24 24 23 23 22 24 23 23 23 23 22 22 22 22 21 22 21 21 21 20 20 20 20 20 19 20 19 19 19 19 19 18 18 18
25 25 24 23 24 24 28 26 27 29 29 30 28 26 25 24 24 24 23 22 23 24 24 24 24 23 23 22 22 22 22 22 21 21 21 20 20 20 20 20 20 20 20 19 19 19 19 18 18
24 26 25 24 25 26 25 26 27 29 30 28 29 28 27 25 24 24 24 24 25 25 25 24 24 24 24 23 23 23 22 22 22 22 21 21 20 21 21 21 20 20 20 19 19 19 19 19 18
24 25 27 26 22 24 27 27 28 28 30 30 28 28 27 26 25 24 24 25 25 26 25 25 25 25 25 24 24 23 23 23 22 22 22 21 20 21 21 21 20 20 20 20 19 19 20 20 19
25 26 23 25 23 24 26 25 28 28 29 29 30 28 28 27 26 26 25 24 24 26 27 26 26 26 26 25 25 25 24 24 23 23 23 22 21 21 21 21 20 20 20 20 20 20 20 20 20
23 25 25 26 25 25 26 28 28 28 29 30 30 29 29 29 28 27 26 25 24 24 24 26 26 26 26 26 26 25 25 24 24 23 23 23 22 21 21 21 21 21 21 20 20 20 20 20 20
26 25 25 24 22 24 26 27 27 29 30 30 30 30 29 29 28 27 27 26 25 24 23 25 26 26 26 27 27 26 26 26 25 24 24 24 23 22 21 21 21 21 21 21 20 20 20 20 20

GFSSGP_850_temp_048.txt.gz
Temp
18 17 17 17 19 22 26 26 28 27 27 25 25 25 23 21 21 20 16 17 17 16 17 17 18 18 18 19 19 19 19 19 19 19 18 18 18 18 17 17 17 16 17 17 17 18 18 18 18
17 18 17 21 22 25 26 28 28 28 25 24 24 24 24 21 17 16 16 16 16 17 16 17 18 18 18 18 19 19 19 19 19 19 19 18 18 18 18 18 18 18 18 18 18 17 18 18 17
17 17 21 22 24 26 27 28 27 26 25 25 24 24 23 20 18 17 17 17 17 16 17 17 18 19 19 19 19 19 19 19 19 19 19 18 18 18 17 17 18 18 18 18 18 18 18 18 17
18 18 20 22 28 28 28 28 27 26 25 24 24 23 20 19 18 18 16 17 18 17 17 17 19 19 19 19 19 19 19 19 19 19 19 18 18 18 17 17 17 18 18 18 18 18 18 18 17
18 21 25 26 29 29 29 27 27 27 25 24 24 22 18 17 17 17 17 18 18 18 17 16 19 19 19 19 19 19 19 19 19 19 18 18 18 18 18 18 17 18 18 18 18 17 17 17 17
23 23 27 29 29 29 28 27 27 27 25 23 23 20 17 17 17 17 18 18 19 19 18 17 19 19 19 19 19 19 19 19 19 18 18 18 18 18 18 18 18 18 18 18 18 18 17 18 18
24 25 28 28 28 29 28 27 28 27 25 24 23 23 18 17 17 17 18 19 19 19 19 17 17 19 19 19 19 19 19 19 19 19 18 18 18 18 18 18 18 18 18 18 18 17 17 18 18
23 25 29 30 30 29 28 28 27 27 26 23 23 22 20 18 18 18 18 19 19 19 18 18 17 17 17 19 19 19 19 19 19 19 18 18 18 18 18 18 18 18 18 18 18 18 18 18 18
22 26 29 30 30 30 28 28 26 25 24 24 23 23 21 18 18 18 18 18 18 19 19 18 18 17 17 17 19 19 19 19 18 18 19 18 18 18 18 18 19 18 18 19 18 18 18 18 18
25 29 30 30 30 31 29 29 27 27 25 24 23 22 19 19 18 18 19 18 17 19 19 19 19 18 17 18 17 17 17 18 17 17 17 18 18 18 17 18 18 18 19 19 19 18 18 18 18
26 29 30 30 29 29 29 29 28 28 27 25 24 21 20 19 18 20 20 19 19 19 19 19 18 18 18 18 17 18 18 18 18 19 18 17 18 18 18 18 19 18 18 18 18 18 19 19 19
27 27 28 29 28 29 30 29 28 28 28 26 23 21 20 20 20 20 20 20 20 19 19 19 18 17 17 18 18 18 19 18 18 18 19 18 18 18 18 19 18 18 18 18 18 18 18 18 18
26 29 28 29 29 29 29 29 29 28 27 26 23 21 21 21 21 21 20 20 19 19 19 18 17 17 17 18 18 18 18 18 19 18 18 18 18 18 18 18 19 18 19 18 18 18 18 18 19
28 28 29 29 30 30 30 29 28 28 26 25 23 22 21 21 21 21 21 20 20 19 19 18 17 17 17 18 18 17 18 18 18 18 18 19 18 18 19 18 19 19 19 18 18 17 18 18 18
28 28 29 30 30 31 30 29 29 27 25 25 23 22 22 22 21 21 21 20 20 19 19 18 18 17 17 19 20 18 18 18 18 18 20 19 19 19 18 19 19 19 18 18 17 17 18 18 19
28 29 30 32 31 31 30 31 30 27 26 25 24 23 22 22 22 21 21 21 20 20 19 18 19 18 17 18 19 18 18 18 19 19 18 20 20 19 19 19 19 19 18 18 18 18 18 19 19
29 30 30 31 32 32 31 31 32 28 27 26 25 24 23 22 22 22 21 21 20 20 19 18 18 19 18 19 18 18 18 19 19 19 19 19 19 19 19 19 19 19 18 18 18 18 18 18 18
29 30 32 31 31 31 31 31 32 30 28 28 26 25 24 23 23 22 21 21 21 20 19 18 18 18 18 18 20 18 18 18 19 19 19 19 20 20 20 18 19 19 18 18 17 18 18 18 18
30 30 31 31 32 31 31 32 32 31 29 29 27 26 25 24 24 23 22 21 21 20 19 18 18 18 19 19 18 18 19 19 19 19 19 19 20 20 20 19 20 20 18 18 18 17 18 19 18
29 29 30 32 32 30 31 32 33 33 30 29 28 27 26 25 24 23 22 22 21 21 20 19 19 19 21 20 19 19 19 20 19 19 19 20 20 20 20 19 19 19 19 18 17 18 19 18 18
27 29 30 30 31 31 31 31 32 32 31 30 29 28 27 26 25 24 23 22 22 21 20 19 19 20 20 19 18 18 19 19 19 19 19 19 20 20 20 19 19 19 19 19 18 18 18 19 18
27 28 29 29 29 30 32 30 32 33 31 31 30 29 28 26 26 25 24 23 22 22 21 20 19 19 19 20 19 19 19 20 20 20 20 20 19 19 19 19 19 19 19 19 18 18 18 18 19
28 30 28 29 29 29 30 30 32 33 32 31 31 29 29 27 27 26 25 24 23 23 22 20 19 20 20 21 20 19 20 20 20 20 20 19 19 20 19 18 18 19 19 19 19 19 19 18 19
28 28 28 28 29 28 30 30 31 32 32 33 32 30 29 29 28 27 26 25 24 23 22 21 20 22 22 21 22 20 20 20 20 20 20 20 19 19 20 18 18 19 19 18 19 19 19 18 18
28 28 27 27 28 28 31 31 31 33 34 33 34 32 30 29 28 28 26 26 25 24 23 22 21 23 23 22 22 22 22 21 20 20 20 21 21 21 20 19 19 18 20 19 20 19 19 19 19
27 28 29 27 29 30 31 30 32 34 33 33 32 33 31 30 29 28 27 26 25 25 23 22 21 23 23 23 23 23 22 21 20 20 21 21 21 21 20 19 20 20 19 20 20 19 19 19 20
27 28 31 31 31 30 32 31 32 33 33 33 33 32 33 31 30 28 28 27 26 25 24 22 23 25 25 24 24 23 23 23 20 21 21 20 20 21 20 19 20 21 20 20 20 19 20 20 21
30 29 28 30 27 28 30 31 32 32 32 33 33 33 33 32 31 29 29 28 27 26 24 23 23 26 26 25 25 24 24 24 23 23 23 22 21 21 21 19 19 21 21 21 21 19 19 20 21
28 28 29 30 30 29 29 31 34 33 33 33 34 33 33 33 32 31 29 28 28 27 26 24 22 23 26 26 25 25 25 25 25 24 24 23 23 22 22 20 21 21 20 21 21 20 19 20 21
30 29 29 28 27 29 30 32 33 33 33 33 33 33 33 33 33 32 31 30 28 27 27 25 24 22 22 25 26 26 26 25 25 25 25 24 24 23 23 22 21 21 20 20 21 21 19 19 20